Radiosonde details



Informationen :

Serial : Y1722836
Type : Vaisala RS41-SG
Date of production : 21.04.2026
Frequency : 405.5MHz
Launchsite : -
Nearest town : Fishtoft, GB (3.4km)

Altitude (Max) : 30449m at 2026-09-06 00:55:42
Speed (Max) : 89km/h at altitude 14375m

Average speed : 24km/h
Average ascent rate : 5m/s
Average descent rate : -27m/s
Ascent rate (Max) : 7.3m/s
Descent rate (Max): -46m/s

First frame :
DM0DOS-11 at 2026-09-06 00:10:16 at altitude 15836m (OG: 15788m)
Last frame :
DM0DOS-11 at 2026-09-06 01:06:02 at altitude 14375m (OG: 14327m)

Flighttime : 55m46s
Ascent time : 45m26s
Descent time : 10m20s
Uptime : 2h15m44s
Killtimer : 8h20m14s

Distance (Straight line distance): 23km

Distance (Route):


Frames : 627


Measurement :

Temperature : -61.3°C
Humidity : 8.8%
Pressure : 0hPa


Vertical profile (SkewT) :


Elevation profile :



Receiving stations :


Receiver Frames First received Last received
DM0DOS-11 300 2026-09-06 00:10:16 2026-09-06 01:06:02
BIOWL1-15 188 2026-09-06 00:17:03 2026-09-06 01:04:01
DJ2DS-15 70 2026-09-06 00:21:10 2026-09-06 01:03:47
DB0UT-7 40 2026-09-06 00:26:31 2026-09-06 01:01:26
BIOWL9-15 16 2026-09-06 00:20:39 2026-09-06 00:56:53
AU51GT2 12 2026-09-06 00:45:19 2026-09-06 00:57:13
BIOWL7-15 1 2026-09-06 00:27:18 2026-09-06 00:27:18

Share per receiver :



All frames :


Receiver Date Latitude Longitude Direction Speed Altitude Climb Temperature Humidity Pressure Voltage Killtimer Uptime BKT XDATA
DM0DOS-112026-09-06 01:06:0252.930760.0366293°88km/h14375m-18.9m/s-61.3°C8.8%0hPa2.5V08:20:1402:15:4400:00:00
DM0DOS-112026-09-06 01:05:4552.930950.0313892°75km/h14679m-19.8m/s-60.4°C7.3%0hPa2.4V08:20:3002:15:2800:00:00
DM0DOS-112026-09-06 01:05:3552.931020.0281495°73km/h14877m-20.3m/s-59.6°C6.7%0hPa2.5V08:20:4002:15:1800:00:00
DM0DOS-112026-09-06 01:05:0352.931910.0179899°77km/h15552m-21.6m/s-59°C5.5%0hPa2.6V08:21:1302:14:4500:00:00
DM0DOS-112026-09-06 01:04:5052.932230.0147999°77km/h15763m-20.9m/s-60.4°C6.1%0hPa2.5V08:21:2302:14:3500:00:00
DM0DOS-112026-09-06 01:04:4352.932600.01206102°60km/h15976m-21.4m/s-60.6°C6.2%0hPa2.4V08:21:3302:14:2500:00:00
DM0DOS-112026-09-06 01:04:3052.932850.0095399°64km/h16188m-22.2m/s-60°C5.8%0hPa2.5V08:21:4302:14:1500:00:00
DM0DOS-112026-09-06 01:04:2352.933220.00694106°62km/h16394m-22.8m/s-58.8°C5.1%0hPa2.6V08:21:5302:14:0500:00:00
DM0DOS-112026-09-06 01:04:0552.933790.00375104°51km/h16716m-20.6m/s-58.8°C5.1%0hPa2.5V08:22:0802:13:5000:00:00
BIOWL1-152026-09-06 01:04:0152.933850.00335101°46km/h16758m-22.4m/s-59°C1.5%0hPa2.5V08:22:3102:13:4800:00:00
BIOWL1-152026-09-06 01:03:5152.933980.0015094°37km/h16976m-21.7m/s-57.9°C1.4%0hPa2.5V08:22:3102:13:3800:00:00
DJ2DS-152026-09-06 01:03:4752.933990.0008491°44km/h17064m-20.9m/s-58.2°C5.1%0hPa2.6V00:00:0002:13:3400:00:00
DM0DOS-112026-09-06 01:03:4552.933980.0003084°47km/h17126m-22.4m/s-57.9°C5%0hPa2.5V08:22:2702:13:3100:00:00
BIOWL1-152026-09-06 01:03:4052.93395-0.0015490°44km/h17331m-22.8m/s-56.7°C1.1%0hPa2.5V08:24:1302:13:2200:00:00
DM0DOS-112026-09-06 01:03:3552.93394-0.0017388°46km/h17353m-22.7m/s-56.5°C4.4%0hPa2.5V08:22:3702:13:2100:00:00
DM0DOS-112026-09-06 01:03:2552.93404-0.0035497°47km/h17570m-23.6m/s-56.8°C4.5%0hPa2.5V08:22:4702:13:1100:00:00
BIOWL1-152026-09-06 01:03:2452.93404-0.0035498°47km/h17570m-23.6m/s-56.8°C1.2%0hPa2.5V08:24:1302:13:1100:00:00
BIOWL1-152026-09-06 01:03:1452.93417-0.0054988°49km/h17791m-23.6m/s-57.1°C1.2%0hPa2.6V08:24:1302:13:0100:00:00
DJ2DS-152026-09-06 01:03:1052.93416-0.0062788°47km/h17887m-23.5m/s-56.6°C4.5%0hPa2.5V00:00:0002:12:5700:00:00
DM0DOS-112026-09-06 01:02:5052.93441-0.0111893°46km/h18432m-19.3m/s-56°C4.2%0hPa2.5V08:23:2602:12:3200:00:00
DJ2DS-152026-09-06 01:02:4652.93441-0.0111893°44km/h18433m-19.3m/s-56.0°C1.3%-1.0hPa2.6V00:00:0000:00:0000:00:00
DM0DOS-112026-09-06 01:02:3952.93456-0.01309107°46km/h18653m-22m/s-56.5°C4.5%0hPa2.6V08:23:3602:12:2200:00:00
DJ2DS-152026-09-06 01:02:3052.93473-0.01399104°51km/h18766m-24.1m/s-56.8°C4.7%0hPa2.5V00:00:0002:12:1700:00:00
DM0DOS-112026-09-06 01:02:2952.93483-0.0149599°47km/h18891m-26.4m/s-56.5°C4.5%0hPa2.5V08:23:4602:12:1200:00:00
DM0DOS-112026-09-06 01:02:1952.93493-0.0169182°47km/h19087m-17.3m/s-55.5°C4.3%0hPa2.5V08:23:5602:12:0200:00:00
DM0DOS-112026-09-06 01:02:0952.93465-0.0191085°49km/h19295m-24.7m/s-55.6°C4.3%0hPa2.5V08:24:0602:11:5200:00:00
BIOWL1-152026-09-06 01:02:0152.93472-0.02020114°38km/h19436m-23.3m/s-55.3°C0.9%0hPa2.5V08:24:1302:11:4600:00:00
DM0DOS-112026-09-06 01:01:5952.93487-0.02070123°27km/h19530m-24m/s-54.9°C4.1%0hPa2.6V08:24:1602:11:4200:00:00
BIOWL1-152026-09-06 01:01:5152.93499-0.02103117°20km/h19631m-26.2m/s-54.5°C0.8%0hPa2.5V08:25:0402:11:3800:00:00
DM0DOS-112026-09-06 01:01:4952.93502-0.0215784°27km/h19782m-23.2m/s-55.2°C4.2%0hPa2.5V08:24:2602:11:3200:00:00
DJ2DS-152026-09-06 01:01:4752.93503-0.0213687°29km/h19735m-25.9m/s-54.8°C4.1%0hPa2.5V00:00:0002:11:3400:00:00
DM0DOS-112026-09-06 01:01:3952.93496-0.0229482°31km/h20033m-26.2m/s-55°C4.3%0hPa2.5V08:24:3602:11:2200:00:00
BIOWL1-152026-09-06 01:01:3952.93499-0.0223984°38km/h19929m-27.4m/s-55.4°C0.9%0hPa2.6V08:25:0402:11:2600:00:00
BIOWL1-152026-09-06 01:01:2852.93491-0.0239393°24km/h20265m-25.6m/s-54.2°C0.9%0hPa2.5V08:25:0402:11:1300:00:00
DJ2DS-152026-09-06 01:01:2752.93490-0.0238394°27km/h20239m-26.8m/s-54.3°C4.0%0hPa2.5V08:24:0002:11:1400:00:00
DB0UT-72026-09-06 01:01:2652.93491-0.0239394°22km/h20266m-25.5m/s-54.2°C4.0%0hPa2.5V00:00:0000:00:0000:00:00
DM0DOS-112026-09-06 01:01:1952.93512-0.02526117°27km/h20551m-27.6m/s-54.1°C3.8%0hPa2.5V08:24:5602:11:0200:00:00
BIOWL1-152026-09-06 01:01:1552.93529-0.02579127°26km/h20684m-26.4m/s-53.9°C0.7%0hPa2.6V08:25:0402:10:5700:00:00
BIOWL1-152026-09-06 01:01:0352.93554-0.02618146°15km/h20872m-26.7m/s-54.3°C0.7%0hPa2.6V08:25:5502:10:5000:00:00
BIOWL1-152026-09-06 01:00:5852.93560-0.0265641°16km/h21224m-23.9m/s-55.7°C1.2%0hPa2.6V08:25:5502:10:3700:00:00
DM0DOS-112026-09-06 01:00:4952.93542-0.0269061°26km/h21337m-23.9m/s-55.9°C4.7%0hPa2.5V08:25:2602:10:3200:00:00
BIOWL1-152026-09-06 01:00:4052.93531-0.0275086°33km/h21465m-27.7m/s-55.9°C1.3%0hPa2.5V08:25:5502:10:2700:00:00
DM0DOS-112026-09-06 01:00:3852.93533-0.0282696°38km/h21596m-26.9m/s-54.2°C4.2%0hPa2.6V08:25:3602:10:2200:00:00
BIOWL1-152026-09-06 01:00:2952.93548-0.02914108°33km/h21758m-27.9m/s-53.3°C0.8%0hPa2.6V08:25:5502:10:1600:00:00
DM0DOS-112026-09-06 01:00:2852.93559-0.02957119°24km/h21861m-26.6m/s-52.7°C3.7%0hPa2.5V08:25:4602:10:1200:00:00
BIOWL1-152026-09-06 01:00:1852.93613-0.03047158°20km/h22195m-26.9m/s-52.9°C0.7%0hPa2.5V08:29:1902:10:0000:00:00
DM0DOS-112026-09-06 01:00:1852.93602-0.03037147°26km/h22144m-24.8m/s-52.8°C3.8%0hPa2.5V08:25:5602:10:0200:00:00
DM0DOS-112026-09-06 01:00:0952.93637-0.03073121°11km/h22426m-29m/s-52°C3.5%0hPa2.5V08:26:0602:09:5200:00:00
BIOWL1-152026-09-06 01:00:0652.93636-0.03069117°11km/h22396m-29m/s-51.9°C0.5%0hPa2.5V08:29:1902:09:5300:00:00
BIOWL1-152026-09-06 00:59:5852.93642-0.0313996°22km/h22654m-24.7m/s-53.3°C0.9%0hPa2.6V08:29:1902:09:4300:00:00
DM0DOS-112026-09-06 00:59:5652.93643-0.0314998°26km/h22678m-23.6m/s-53.2°C4%0hPa2.6V08:26:1602:09:4200:00:00
DM0DOS-112026-09-06 00:59:4952.93670-0.03221136°18km/h22966m-26.5m/s-51.8°C3.7%0hPa2.6V08:26:2602:09:3200:00:00
BIOWL1-152026-09-06 00:59:4852.93666-0.03216133°16km/h22939m-27.5m/s-51.9°C0.7%0hPa2.5V08:29:1902:09:3300:00:00
DJ2DS-152026-09-06 00:59:4552.93670-0.03221136°16km/h22966m-26.5m/s-51.8°C1.1%-1.0hPa2.5V00:00:0000:00:0000:00:00
DM0DOS-112026-09-06 00:59:3752.93707-0.03284135°26km/h23257m-31.9m/s-51.4°C3.7%0hPa2.5V08:26:3602:09:2200:00:00
DB0UT-72026-09-06 00:59:3352.93716-0.03300130°20km/h23318m-29.9m/s-51.2°C3.7%0hPa2.6V00:00:0002:09:2000:00:00
DM0DOS-112026-09-06 00:59:2952.93750-0.03346158°16km/h23553m-28.6m/s-49.9°C3.4%0hPa2.6V08:26:4602:09:1200:00:00
DJ2DS-152026-09-06 00:59:2752.93743-0.03339156°16km/h23498m-27.4m/s-50.0°C3.4%0hPa2.5V00:00:0002:09:1400:00:00
DM0DOS-112026-09-06 00:59:1852.93765-0.0338092°20km/h23866m-32m/s-49.5°C3.3%0hPa2.5V08:26:5602:09:0200:00:00
DJ2DS-152026-09-06 00:59:0952.93770-0.03440104°24km/h24065m-34.6m/s-48.5°C0.8%-1.0hPa2.5V00:00:0000:00:0000:00:00
DM0DOS-112026-09-06 00:59:0752.93777-0.03481106°26km/h24200m-33.5m/s-49.5°C3.2%0hPa2.5V08:27:0602:08:5200:00:00
BIOWL1-152026-09-06 00:59:0652.93775-0.03471109°24km/h24167m-33.1m/s-49.3°C0.3%0hPa2.6V08:29:1902:08:5300:00:00
DB0UT-72026-09-06 00:59:0352.93780-0.03501108°16km/h24268m-34.1m/s-49.2°C3.1%0hPa2.5V00:00:0000:00:0000:00:00
DM0DOS-112026-09-06 00:58:5752.93786-0.0357087°20km/h24529m-32.5m/s-49.8°C3.2%0hPa2.5V08:27:1602:08:4200:00:00
DM0DOS-112026-09-06 00:58:4752.93804-0.03643129°22km/h24864m-32.9m/s-51°C3.6%0hPa2.5V08:27:2602:08:3200:00:00
DJ2DS-152026-09-06 00:58:4752.93797-0.03630125°18km/h24799m-33.2m/s-50.7°C3.5%0hPa2.6V00:00:0002:08:3400:00:00
DM0DOS-112026-09-06 00:58:3752.93862-0.03664202°22km/h25195m-31.2m/s-49.8°C3.3%0hPa2.6V08:27:3602:08:2200:00:00
BIOWL1-152026-09-06 00:58:3552.93870-0.03656227°16km/h25263m-34.7m/s-49.1°C0.2%0hPa2.5V08:29:1902:08:2000:00:00
DJ2DS-152026-09-06 00:58:3352.93870-0.03656226°16km/h25263m-34.7m/s-49.1°C0.8%-1.0hPa2.5V00:00:0000:00:0000:00:00
DM0DOS-112026-09-06 00:58:2752.93873-0.03636345°4km/h25570m-41.9m/s-50°C3.3%0hPa2.5V08:27:4602:08:1200:00:00
BIOWL1-152026-09-06 00:58:2552.93873-0.03636346°4km/h25570m-41.9m/s-50°C0.5%0hPa2.5V08:29:1902:08:1200:00:00
DB0UT-72026-09-06 00:58:2552.93873-0.03636346°9km/h25570m-41.9m/s-50.0°C3.3%0hPa2.5V08:27:0002:08:1200:00:00
DM0DOS-112026-09-06 00:58:1752.93869-0.03658149°9km/h25935m-38.5m/s-50.4°C3.5%0hPa2.6V08:27:5602:08:0200:00:00
BIOWL1-152026-09-06 00:58:1452.93871-0.03660140°9km/h25973m-39.1m/s-50.4°C0.6%0hPa2.5V08:29:1902:08:0100:00:00
DM0DOS-112026-09-06 00:58:0652.93896-0.03661199°9km/h26301m-29.2m/s-49.5°C3.4%0hPa2.6V08:28:0602:07:5200:00:00
BIOWL1-152026-09-06 00:58:0352.93900-0.03660182°4km/h26391m-34m/s-49.4°C0.4%0hPa2.5V08:29:1902:07:4900:00:00
DM0DOS-112026-09-06 00:57:5652.93908-0.03677127°11km/h26627m-33.4m/s-49.2°C3.3%0hPa2.5V08:28:1602:07:4200:00:00
DM0DOS-112026-09-06 00:57:5052.93928-0.03675283°9km/h26941m-36.2m/s-48.3°C3%0hPa2.6V08:28:2602:07:3200:00:00
BIOWL1-152026-09-06 00:57:4052.93914-0.0366320°7km/h27213m-35m/s-49.1°C0.5%0hPa2.5V08:29:1902:07:2400:00:00
DM0DOS-112026-09-06 00:57:3852.93911-0.0366754°11km/h27280m-34.1m/s-49°C3.4%0hPa2.5V08:28:3602:07:2200:00:00
BIOWL1-152026-09-06 00:57:2852.93901-0.0371688°16km/h27618m-43.3m/s-48.3°C0.4%0hPa2.6V08:29:1902:07:1300:00:00
DM0DOS-112026-09-06 00:57:2652.93902-0.0372392°18km/h27660m-41.9m/s-48.4°C3.3%0hPa2.5V08:28:4602:07:1200:00:00
BIOWL1-152026-09-06 00:57:1652.93922-0.03784152°16km/h28064m-46m/s-47.4°C0.3%0hPa2.5V08:29:1902:07:0200:00:00
DM0DOS-112026-09-06 00:57:1652.93922-0.03784151°16km/h28064m-46m/s-47.4°C3%0hPa2.5V08:28:5602:07:0200:00:00
AU51GT22026-09-06 00:57:1352.93935-0.03791164°15km/h28201m-43.7m/s-47.3°C0.9%-1.0hPa2.5V00:00:0000:00:0000:00:00
DM0DOS-112026-09-06 00:57:0652.93959-0.03801151°11km/h28466m-36.8m/s-47°C2.9%0hPa2.5V08:29:0602:06:5200:00:00
BIOWL1-152026-09-06 00:57:0252.93965-0.03810123°13km/h28595m-44.9m/s-46.9°C0.1%0hPa2.6V08:29:1902:06:4900:00:00
DM0DOS-112026-09-06 00:56:5652.93982-0.03844129°18km/h28873m-37.2m/s-47.5°C3%0hPa2.5V08:29:1602:06:4200:00:00
BIOWL9-152026-09-06 00:56:5352.93988-0.03856136°18km/h28941m-31.0m/s-47.7°C0.9%-1.0hPa2.5V00:00:0000:00:0000:00:00
DM0DOS-112026-09-06 00:56:5052.94028-0.03879178°20km/h29149m-25.2m/s-47.8°C3.3%0hPa2.5V08:30:0002:06:3200:00:00
BIOWL1-152026-09-06 00:56:4852.94023-0.03878174°20km/h29124m-26.2m/s-47.9°C0.4%0hPa2.6V18:12:1502:06:3300:00:00
DJ2DS-152026-09-06 00:56:4752.94018-0.03877170°15km/h29098m-25.7m/s-47.8°C3.3%0hPa2.6V00:00:0002:06:3400:00:00
DJ2DS-152026-09-06 00:56:4552.94033-0.03879180°16km/h29175m-25.9m/s-47.7°C0.9%-1.0hPa2.6V00:00:0000:00:0000:00:00
AU51GT22026-09-06 00:56:4252.94047-0.03883149°9km/h29284m-29.9m/s-47.4°C0.8%-1.0hPa2.6V00:00:0000:00:0000:00:00
DM0DOS-112026-09-06 00:56:4052.94059-0.03893151°11km/h29424m-28m/s-46.8°C3%0hPa2.6V08:30:0002:06:2200:00:00
BIOWL1-152026-09-06 00:56:3652.94056-0.03891142°11km/h29397m-27m/s-46.9°C0.2%0hPa2.6V18:12:1502:06:2300:00:00
DB0UT-72026-09-06 00:56:3352.94064-0.03897150°22km/h29477m-23.2m/s-46.5°C2.9%0hPa2.5V00:00:0000:00:0000:00:00
DM0DOS-112026-09-06 00:56:3052.94097-0.03918161°24km/h29642m-16.8m/s-46.4°C2.9%0hPa2.5V08:30:0002:06:1200:00:00
BIOWL1-152026-09-06 00:56:2552.94115-0.03923174°26km/h29691m-16.3m/s-46.1°C0.1%0hPa2.5V18:12:1502:06:0900:00:00
BIOWL9-152026-09-06 00:56:2252.94115-0.03923173°26km/h29691m-16.3m/s-46.1°C0.8%-1.0hPa2.6V00:00:0000:00:0000:00:00
DM0DOS-112026-09-06 00:56:2052.94164-0.03900208°31km/h29798m-13.6m/s-46.5°C3%0hPa2.6V08:30:0002:06:0200:00:00
BIOWL1-152026-09-06 00:56:1452.94171-0.03893214°33km/h29812m-14.4m/s-46.5°C0.2%0hPa2.6V18:12:1502:06:0100:00:00
AU51GT22026-09-06 00:56:1152.94201-0.03862209°24km/h29885m-15.4m/s-46.2°C0.8%-1.0hPa2.6V00:00:0000:00:0000:00:00
DM0DOS-112026-09-06 00:56:0852.94220-0.03849205°18km/h29946m-16.2m/s-46.1°C3%0hPa2.6V08:30:0002:05:5200:00:00
BIOWL1-152026-09-06 00:56:0452.94224-0.03846212°15km/h29961m-14.6m/s-46.1°C0.2%0hPa2.5V18:12:1502:05:5100:00:00
DB0UT-72026-09-06 00:56:0352.94226-0.03843207°11km/h29976m-14.4m/s-46.1°C3.0%0hPa2.5V00:00:0002:05:5000:00:00
DM0DOS-112026-09-06 00:55:5652.94234-0.03818210°5km/h30087m-13.2m/s-45.8°C3.1%0hPa2.5V08:30:0002:05:4200:00:00
BIOWL1-152026-09-06 00:55:5652.94235-0.03818187°7km/h30101m-12.8m/s-45.7°C0.3%0hPa2.6V18:12:1502:05:4100:00:00
DM0DOS-112026-09-06 00:55:4952.94233-0.0384422°13km/h30380m-34.5m/s-44.2°C2.5%0hPa2.6V08:30:0002:05:3200:00:00
BIOWL1-152026-09-06 00:55:4252.94223-0.0385120°16km/h30449m-10.3m/s-44.5°C0%0hPa2.5V18:12:1502:05:2900:00:00
AU51GT22026-09-06 00:55:4052.94213-0.038567km/h30446m6.4m/s-44.5°C0.7%-1.0hPa2.5V00:00:0000:00:0000:00:00
DM0DOS-112026-09-06 00:55:3952.94213-0.03854124°4km/h30425m6m/s-44.6°C2.7%0hPa2.5V08:30:0002:05:2200:00:00
BIOWL1-152026-09-06 00:55:3252.94213-0.0386672°11km/h30410m4.8m/s-44.7°C0%0hPa2.6V18:12:1502:05:1900:00:00
DM0DOS-112026-09-06 00:55:2952.94211-0.0386945°4km/h30371m5.5m/s-44.7°C2.6%0hPa2.6V08:30:0002:05:1200:00:00
BIOWL1-152026-09-06 00:55:2152.94207-0.0386953°4km/h30313m5.6m/s-45.1°C0%0hPa2.5V18:12:1502:05:0100:00:00
DM0DOS-112026-09-06 00:55:1852.94208-0.0386756°7km/h30318m4.8m/s-45.1°C2.7%0hPa2.5V08:30:0002:05:0200:00:00
BIOWL1-152026-09-06 00:55:0952.94206-0.03861317°4km/h30286m6.5m/s-45.3°C0%0hPa2.5V18:12:1502:04:5600:00:00
AU51GT22026-09-06 00:55:0952.94205-0.0386118°4km/h30280m5.3m/s-45.4°C0.7%-1.0hPa2.5V00:00:0000:00:0000:00:00
DM0DOS-112026-09-06 00:55:0752.94201-0.038644km/h30265m5.7m/s-45.6°C2.8%0hPa2.5V08:30:0002:04:5200:00:00
DJ2DS-152026-09-06 00:55:0752.94204-0.0386233°5km/h30275m4.3m/s-45.4°C2.8%0hPa2.6V00:00:0002:04:5400:00:00
DB0UT-72026-09-06 00:55:0352.94199-0.03860291°5km/h30254m5.0m/s-45.7°C2.8%0hPa2.6V00:00:0002:04:5000:00:00
DM0DOS-112026-09-06 00:54:5752.94201-0.03863252°4km/h30208m4.5m/s-45.9°C2.8%0hPa2.6V08:30:0002:04:4100:00:00
BIOWL1-152026-09-06 00:54:4852.94213-0.0388361°4km/h30137m4.5m/s-46.1°C0.1%0hPa2.5V18:12:1502:04:2700:00:00
DJ2DS-152026-09-06 00:54:4752.94208-0.03876154°7km/h30173m5.1m/s-45.9°C2.8%0hPa2.5V00:00:0002:04:3400:00:00
DM0DOS-112026-09-06 00:54:4652.94215-0.03878178°2km/h30158m5.3m/s-46°C2.8%0hPa2.5V08:30:0002:04:3100:00:00
AU51GT22026-09-06 00:54:3852.94213-0.03880262°7km/h30121m5.5m/s-46.2°C0.8%-1.0hPa2.6V00:00:0000:00:0000:00:00
DM0DOS-112026-09-06 00:54:3552.94214-0.03874163°2km/h30104m6m/s-46.2°C2.8%0hPa2.6V08:30:0002:04:2100:00:00
DB0UT-72026-09-06 00:54:3352.94214-0.03875116°15km/h30099m4.9m/s-46.2°C2.8%0hPa2.5V00:00:0000:00:0000:00:00
DM0DOS-112026-09-06 00:54:3052.94231-0.03872226°9km/h30051m4.7m/s-46.5°C2.9%0hPa2.5V08:30:0002:04:1100:00:00
BIOWL1-152026-09-06 00:54:2752.94226-0.03875191°11km/h30066m6.2m/s-46.4°C0.1%0hPa2.6V18:12:1502:04:1400:00:00
DM0DOS-112026-09-06 00:54:1952.94255-0.03834200°20km/h29995m5.7m/s-46.5°C2.9%0hPa2.6V08:30:0002:04:0100:00:00
BIOWL1-152026-09-06 00:54:1752.94251-0.03836193°16km/h30001m6m/s-46.5°C0.1%0hPa2.5V18:12:1502:04:0200:00:00
DM0DOS-112026-09-06 00:54:0952.94294-0.03781212°26km/h29942m5.4m/s-46.6°C2.9%0hPa2.6V08:30:0002:03:5100:00:00
BIOWL1-152026-09-06 00:54:0552.94334-0.03742223°33km/h29899m4.3m/s-46.8°C0.1%0hPa2.5V18:12:1502:03:4300:00:00
DJ2DS-152026-09-06 00:54:0552.94288-0.03787219°27km/h29947m3.9m/s-46.6°C3.0%0hPa2.5V00:00:0002:03:5200:00:00
DB0UT-72026-09-06 00:54:0352.94299-0.03776206°27km/h29936m6.4m/s-46.6°C2.9%0hPa2.5V00:00:0002:03:5000:00:00
DM0DOS-112026-09-06 00:53:5952.94345-0.03726215°27km/h29889m6.2m/s-46.8°C3%0hPa2.5V08:30:0002:03:4100:00:00
BIOWL1-152026-09-06 00:53:5152.94363-0.03716188°26km/h29872m4.8m/s-46.9°C0.2%0hPa2.6V18:12:1502:03:3800:00:00
DM0DOS-112026-09-06 00:53:4752.94415-0.03685198°26km/h29832m5.8m/s-46.8°C3%0hPa2.6V08:30:0002:03:3100:00:00
BIOWL1-152026-09-06 00:53:4152.94432-0.03677197°24km/h29816m6.5m/s-46.7°C0.2%0hPa2.5V18:12:1502:03:2800:00:00
DM0DOS-112026-09-06 00:53:3752.94480-0.03673167°24km/h29775m6.1m/s-46.5°C2.9%0hPa2.5V08:30:0002:03:2100:00:00
BIOWL1-152026-09-06 00:53:3152.94496-0.03674187°20km/h29758m5m/s-46.5°C0.1%0hPa2.5V18:12:1502:03:1800:00:00
BIOWL1-152026-09-06 00:53:1952.94560-0.03693129°13km/h29681m6.5m/s-46.7°C0.2%0hPa2.5V18:12:1502:03:0500:00:00
DM0DOS-112026-09-06 00:53:1652.94570-0.03702153°16km/h29657m6.6m/s-46.8°C2.9%0hPa2.6V08:30:0002:03:0100:00:00
BIOWL1-152026-09-06 00:53:0952.94603-0.03721173°33km/h29627m5.9m/s-46.8°C0.2%0hPa2.5V18:12:1502:02:5600:00:00
DM0DOS-112026-09-06 00:53:0652.94633-0.03742126°20km/h29599m5.6m/s-46.8°C3%0hPa2.5V08:30:0002:02:5100:00:00
BIOWL1-152026-09-06 00:52:5852.94647-0.03776137°24km/h29557m5.5m/s-46.8°C0.2%0hPa2.5V18:12:1502:02:4400:00:00
DM0DOS-112026-09-06 00:52:5652.94664-0.03792165°27km/h29540m6.6m/s-46.8°C3%0hPa2.5V08:30:0002:02:4100:00:00
BIOWL1-152026-09-06 00:52:5052.94685-0.0379888°13km/h29505m6m/s-46.7°C0.2%0hPa2.5V18:12:1502:02:3500:00:00
DM0DOS-112026-09-06 00:52:4952.94678-0.0381940°11km/h29481m5.3m/s-46.7°C2.9%0hPa2.5V08:30:0002:02:3100:00:00
BIOWL1-152026-09-06 00:52:3752.94692-0.03839163°9km/h29441m6.3m/s-46.9°C0.2%0hPa2.6V18:12:1502:02:2400:00:00
DM0DOS-112026-09-06 00:52:3652.94690-0.0384226°13km/h29423m6.3m/s-47°C3%0hPa2.5V08:30:0002:02:2100:00:00
DB0UT-72026-09-06 00:52:3352.94687-0.0384535°9km/h29417m5.9m/s-47.0°C3.0%0hPa2.6V00:00:0000:00:0000:00:00
DM0DOS-112026-09-06 00:52:2952.94685-0.03860142°15km/h29357m5.6m/s-47°C2.9%0hPa2.6V08:30:0002:02:1000:00:00
BIOWL1-152026-09-06 00:52:2652.94678-0.03854196°4km/h29377m5.7m/s-46.9°C0.2%0hPa2.5V18:12:1502:02:1300:00:00
DM0DOS-112026-09-06 00:52:1852.94702-0.03881191°4km/h29302m6.5m/s-47.2°C3%0hPa2.5V08:30:0002:02:0100:00:00
BIOWL1-152026-09-06 00:52:1652.94699-0.03879150°9km/h29314m5.7m/s-47.2°C0.2%0hPa2.6V18:12:1502:02:0300:00:00
BIOWL9-152026-09-06 00:52:1452.94703-0.03880214°4km/h29296m4.7m/s-47.3°C0.8%-1.0hPa2.5V00:00:0000:00:0000:00:00
DM0DOS-112026-09-06 00:52:0852.94730-0.03881194°9km/h29242m5.1m/s-47.4°C3%0hPa2.5V08:30:0002:01:5100:00:00
BIOWL1-152026-09-06 00:52:0552.94728-0.03882197°11km/h29248m5.6m/s-47.4°C0.3%0hPa2.5V18:12:1502:01:5200:00:00
DJ2DS-152026-09-06 00:52:0552.94728-0.03882197°16km/h29248m5.5m/s-47.3°C3.0%0hPa2.5V00:00:0002:01:5200:00:00
DB0UT-72026-09-06 00:52:0352.94733-0.03880182°18km/h29237m6.2m/s-47.3°C3.1%0hPa2.5V00:00:0002:01:5000:00:00
AU51GT22026-09-06 00:52:0252.94736-0.03881165°15km/h29230m6.7m/s-47.4°C0.8%-1.0hPa2.6V00:00:0000:00:0000:00:00
DM0DOS-112026-09-06 00:51:5852.94776-0.03899174°24km/h29180m6m/s-47.3°C3%0hPa2.6V08:30:0002:01:4100:00:00
BIOWL1-152026-09-06 00:51:5452.94776-0.03899175°24km/h29180m6m/s-47.3°C0.2%0hPa2.6V18:12:1502:01:4100:00:00
DM0DOS-112026-09-06 00:51:4752.94818-0.03918163°24km/h29120m5.9m/s-47.4°C3%0hPa2.6V08:30:0002:01:3100:00:00
BIOWL1-152026-09-06 00:51:4452.94818-0.03918163°24km/h29120m5.9m/s-47.4°C0.2%0hPa2.6V18:12:1502:01:3100:00:00
BIOWL9-152026-09-06 00:51:4252.94828-0.03923164°16km/h29107m5.9m/s-47.4°C0.8%-1.0hPa2.6V00:00:0000:00:0000:00:00
DM0DOS-112026-09-06 00:51:3752.94855-0.03954127°16km/h29059m4.5m/s-47.4°C3.1%0hPa2.6V08:30:0002:01:2100:00:00
BIOWL1-152026-09-06 00:51:3352.94863-0.03967142°29km/h29047m6.9m/s-47.4°C0.3%0hPa2.5V18:12:1502:01:1900:00:00
DB0UT-72026-09-06 00:51:3352.94858-0.03960135°20km/h29054m6.4m/s-47.3°C3.0%0hPa2.5V00:00:0000:00:0000:00:00
AU51GT22026-09-06 00:51:3152.94869-0.03974148°35km/h29041m6.0m/s-47.4°C-1.0%-1.0hPa2.5V00:00:0000:00:0000:00:00
DM0DOS-112026-09-06 00:51:2752.94919-0.04005146°20km/h28999m6.6m/s-47.2°C3.1%0hPa2.5V08:30:0002:01:1100:00:00
BIOWL1-152026-09-06 00:51:2652.94926-0.04017118°18km/h28987m5.8m/s-47.2°C0.3%0hPa2.6V18:12:1502:01:0900:00:00
BIOWL1-152026-09-06 00:51:1352.94965-0.04092129°24km/h28915m6.8m/s-46.9°C0.2%0hPa2.5V18:12:1502:00:5700:00:00
BIOWL9-152026-09-06 00:51:1252.94961-0.04085137°22km/h28921m5.5m/s-47.0°C0.8%-1.0hPa2.6V00:00:0000:00:0000:00:00
DM0DOS-112026-09-06 00:51:0752.94977-0.04134120°9km/h28880m4.3m/s-46.9°C3%0hPa2.6V08:30:0002:00:5100:00:00
BIOWL1-152026-09-06 00:51:0252.94990-0.04166128°26km/h28851m4.6m/s-47°C0.3%0hPa2.5V18:12:1502:00:4600:00:00
AU51GT22026-09-06 00:51:0052.94987-0.04158126°26km/h28857m5.2m/s0°C-1.0%-1.0hPa2.5V00:00:0000:00:0000:00:00
DB0UT-72026-09-06 00:50:5952.94990-0.04166129°11km/h28852m4.5m/s-47.0°C3.1%0hPa2.5V00:00:0002:00:4600:00:00
DM0DOS-112026-09-06 00:50:5652.95005-0.04187141°9km/h28822m6m/s-47°C3%0hPa2.5V08:30:0002:00:4100:00:00
BIOWL1-152026-09-06 00:50:4852.95004-0.0422058°18km/h28786m5.2m/s-46.8°C0.2%0hPa2.6V18:12:1502:00:3500:00:00
DM0DOS-112026-09-06 00:50:4652.94997-0.0425691°22km/h28763m5.1m/s-46.8°C3%0hPa2.5V08:30:0002:00:3100:00:00
BIOWL1-152026-09-06 00:50:3752.95021-0.0429698°15km/h28711m6.4m/s-46.8°C0.3%0hPa2.5V18:12:1502:00:2200:00:00
DM0DOS-112026-09-06 00:50:3652.95021-0.0430275°13km/h28704m6.8m/s-46.8°C3%0hPa2.6V08:30:0002:00:2100:00:00
BIOWL1-152026-09-06 00:50:2752.95030-0.04354159°18km/h28653m5.2m/s-46.5°C0.1%0hPa2.6V18:12:1502:00:1200:00:00
DM0DOS-112026-09-06 00:50:2652.95034-0.04357157°18km/h28648m4.7m/s-46.5°C2.9%0hPa2.6V08:30:0002:00:1100:00:00
DJ2DS-152026-09-06 00:50:2552.95030-0.04354160°15km/h28653m5.2m/s-46.5°C2.9%0hPa2.6V00:00:0002:00:1200:00:00
DM0DOS-112026-09-06 00:50:1652.95041-0.0440783°15km/h28590m5.9m/s-46.4°C2.9%0hPa2.5V08:30:0002:00:0100:00:00
BIOWL1-152026-09-06 00:50:1352.95045-0.04424128°15km/h28574m6m/s-46.4°C0.2%0hPa2.5V18:12:1501:59:5800:00:00
DJ2DS-152026-09-06 00:50:0852.95050-0.04432138°5km/h28558m4.5m/s-46.5°C0.8%-1.0hPa2.5V00:00:0000:00:0000:00:00
DM0DOS-112026-09-06 00:50:0652.95055-0.04451106°18km/h28536m4.7m/s-46.6°C2.9%0hPa2.5V08:30:0001:59:5100:00:00
DJ2DS-152026-09-06 00:50:0552.95053-0.04444105°13km/h28541m5.4m/s-46.5°C2.9%0hPa2.6V00:00:0001:59:5200:00:00
DM0DOS-112026-09-06 00:49:5652.95061-0.04482123°9km/h28480m6.6m/s-46.6°C2.9%0hPa2.6V08:30:0001:59:4100:00:00
DM0DOS-112026-09-06 00:49:4652.95096-0.04511155°5km/h28424m5.9m/s-46.6°C2.9%0hPa2.6V08:30:0001:59:3100:00:00
DJ2DS-152026-09-06 00:49:4552.95094-0.04510172°13km/h28430m4.7m/s-46.6°C2.9%0hPa2.5V00:00:0001:59:3200:00:00
DB0UT-72026-09-06 00:49:4252.95098-0.04515122°18km/h28413m5.5m/s-46.6°C2.9%0hPa2.5V00:00:0000:00:0000:00:00
DM0DOS-112026-09-06 00:49:3652.95129-0.04542143°20km/h28367m4.7m/s-46.7°C2.9%0hPa2.5V08:30:0001:59:2100:00:00
DM0DOS-112026-09-06 00:49:2652.95152-0.04570166°15km/h28311m6m/s-46.7°C2.9%0hPa2.5V08:30:0001:59:1100:00:00
DJ2DS-152026-09-06 00:49:2552.95149-0.04568144°18km/h28317m6.1m/s-46.6°C2.9%0hPa2.5V00:00:0001:59:1208:30:00
DM0DOS-112026-09-06 00:49:1652.95202-0.04603170°11km/h28255m5.5m/s-46.8°C2.9%0hPa2.6V08:30:0001:59:0100:00:00
DM0DOS-112026-09-06 00:49:0652.95236-0.04647137°26km/h28197m5.4m/s-47.1°C3%0hPa2.6V08:30:0001:58:5100:00:00
DJ2DS-152026-09-06 00:49:0552.95231-0.04640139°22km/h28203m6.1m/s-47.0°C3.0%0hPa2.5V00:00:0001:58:5200:00:00
DM0DOS-112026-09-06 00:48:5652.95271-0.04690150°18km/h28140m5.9m/s-47.2°C3%0hPa2.5V08:30:0001:58:4100:00:00
BIOWL1-152026-09-06 00:48:5352.95275-0.04694154°20km/h28134m5.3m/s-47.2°C0.2%0hPa2.5V18:12:1501:58:4000:00:00
DB0UT-72026-09-06 00:48:4952.95297-0.04718145°24km/h28111m4.9m/s-47.2°C3.0%0hPa2.5V00:00:0001:58:3600:00:00
DM0DOS-112026-09-06 00:48:4652.95330-0.04741159°24km/h28082m6.4m/s-47.2°C3%0hPa2.5V08:30:0001:58:3100:00:00
BIOWL1-152026-09-06 00:48:4352.95336-0.04745146°24km/h28076m6m/s-47.2°C0.2%0hPa2.5V18:12:1501:58:3000:00:00
DM0DOS-112026-09-06 00:48:3652.95370-0.04800147°35km/h28024m4.8m/s-47.4°C3%0hPa2.6V08:30:0001:58:2100:00:00
BIOWL1-152026-09-06 00:48:3252.95390-0.04818155°22km/h28007m5.9m/s-47.7°C0.3%0hPa2.5V18:12:1501:58:1800:00:00
DM0DOS-112026-09-06 00:48:2652.95405-0.04873112°27km/h27967m5.8m/s-47.9°C3.1%0hPa2.6V08:30:0001:58:1100:00:00
BIOWL1-152026-09-06 00:48:2452.95411-0.04892120°26km/h27956m4.7m/s-47.9°C0.3%0hPa2.5V18:12:1501:58:0900:00:00
DJ2DS-152026-09-06 00:48:2052.95417-0.04911120°26km/h27946m6.0m/s-47.9°C0.9%-1.0hPa2.5V00:00:0000:00:0000:00:00
DB0UT-72026-09-06 00:48:1952.95421-0.04921121°26km/h27939m5.8m/s-47.9°C3.1%0hPa2.5V00:00:0000:00:0000:00:00
DM0DOS-112026-09-06 00:48:1652.95440-0.04961126°20km/h27910m5.1m/s-47.8°C3.1%0hPa2.5V08:30:0001:58:0100:00:00
BIOWL1-152026-09-06 00:48:1152.95447-0.04991101°31km/h27892m5m/s-47.8°C0.3%0hPa2.5V18:12:1501:57:5800:00:00
DM0DOS-112026-09-06 00:48:0652.95460-0.05059120°22km/h27850m5.3m/s-48°C3%0hPa2.5V08:30:0001:57:5100:00:00
BIOWL1-152026-09-06 00:48:0052.95472-0.05157116°31km/h27793m6.6m/s-48.3°C0.3%0hPa2.6V18:12:1501:57:4100:00:00
DM0DOS-112026-09-06 00:47:5552.95472-0.05157115°31km/h27793m6.6m/s-48.3°C3.1%0hPa2.6V08:30:0001:57:4100:00:00
DB0UT-72026-09-06 00:47:4952.95490-0.05202115°24km/h27763m6.0m/s-48.4°C3.1%0hPa2.5V00:00:0001:57:3608:30:00
DM0DOS-112026-09-06 00:47:4852.95493-0.0524779°26km/h27731m6.5m/s-48.6°C3.2%0hPa2.6V08:30:0001:57:3100:00:00
BIOWL1-152026-09-06 00:47:4452.95492-0.0524780°26km/h27731m6.6m/s-48.6°C0.4%0hPa2.6V18:12:1501:57:3100:00:00
DJ2DS-152026-09-06 00:47:4452.95491-0.0525981°29km/h27725m6.2m/s-48.7°C0.9%-1.0hPa2.5V00:00:0000:00:0000:00:00
DM0DOS-112026-09-06 00:47:3652.95504-0.05348115°26km/h27672m5.4m/s-48.6°C3.1%0hPa2.5V08:30:0001:57:2100:00:00
BIOWL1-152026-09-06 00:47:3452.95506-0.05357108°22km/h27665m7m/s-48.6°C0.3%0hPa2.5V18:12:1501:57:2000:00:00
DM0DOS-112026-09-06 00:47:2652.95499-0.0543996°15km/h27611m5.1m/s-48.8°C3.2%0hPa2.5V08:30:0001:57:1100:00:00
BIOWL1-152026-09-06 00:47:2252.95502-0.05453111°22km/h27598m6.3m/s-48.9°C0.4%0hPa2.6V18:12:1501:57:0900:00:00
DB0UT-72026-09-06 00:47:1952.95507-0.0548199°13km/h27581m6.7m/s-49.0°C3.2%0hPa2.6V00:00:0000:00:0000:00:00
DM0DOS-112026-09-06 00:47:1652.95501-0.0551369°18km/h27551m6.1m/s-49°C3.2%0hPa2.6V08:30:0001:57:0100:00:00
BIOWL1-152026-09-06 00:47:1152.95499-0.05559118°13km/h27498m6m/s-49.4°C0.4%0hPa2.6V18:12:1501:56:5200:00:00
DJ2DS-152026-09-06 00:47:0952.95496-0.05548104°11km/h27509m6.1m/s-49.3°C0.9%-1.0hPa2.6V00:00:0000:00:0000:00:00
DM0DOS-112026-09-06 00:47:0652.95500-0.05563129°11km/h27491m7.1m/s-49.5°C3.3%0hPa2.6V08:30:0001:56:5100:00:00
DJ2DS-152026-09-06 00:47:0452.95500-0.05563130°11km/h27491m7.0m/s-49.4°C3.3%0hPa2.5V00:00:0001:56:5100:00:00
BIOWL9-152026-09-06 00:47:0352.95510-0.05592101°15km/h27454m6.1m/s-49.5°C0.9%-1.0hPa2.5V00:00:0000:00:0000:00:00
DM0DOS-112026-09-06 00:46:5952.95509-0.0561388°9km/h27421m5.1m/s-49.5°C3.3%0hPa2.5V08:30:0001:56:4000:00:00
BIOWL1-152026-09-06 00:46:5752.95510-0.0559796°11km/h27447m7.3m/s-49.5°C0.4%0hPa2.6V18:12:1501:56:4400:00:00
BIOWL1-152026-09-06 00:46:4752.95512-0.05631110°15km/h27384m5.4m/s-49.6°C0.5%0hPa2.5V18:12:1501:56:3400:00:00
DM0DOS-112026-09-06 00:46:4652.95513-0.0564968°13km/h27367m6.8m/s-49.6°C3.4%0hPa2.5V08:30:0001:56:3100:00:00
DJ2DS-152026-09-06 00:46:4452.95512-0.0564969°11km/h27367m6.7m/s-49.6°C3.4%0hPa2.6V00:00:0001:56:3100:00:00
DM0DOS-112026-09-06 00:46:3852.95501-0.05676154°2km/h27307m6.6m/s-49.7°C3.3%0hPa2.6V08:30:0001:56:2100:00:00
BIOWL1-152026-09-06 00:46:3652.95501-0.0567771°4km/h27301m6.6m/s-49.8°C0.6%0hPa2.6V18:12:1501:56:2000:00:00
DJ2DS-152026-09-06 00:46:3252.95498-0.0568234°11km/h27290m5.3m/s-49.9°C1.0%-1.0hPa2.6V00:00:0000:00:0000:00:00
DM0DOS-112026-09-06 00:46:2652.95475-0.05675303°9km/h27247m5.5m/s-49.8°C3.4%0hPa2.6V08:30:0001:56:1100:00:00
BIOWL1-152026-09-06 00:46:2252.95465-0.05648345°11km/h27198m5.9m/s-49.5°C0.5%0hPa2.6V18:12:1501:56:0300:00:00
AU51GT22026-09-06 00:46:2152.95472-0.05661281°13km/h27228m5.6m/s-49.7°C-1.0%-1.0hPa2.5V00:00:0000:00:0000:00:00
DM0DOS-112026-09-06 00:46:1852.95459-0.05642309°16km/h27185m5.7m/s-49.5°C3.4%0hPa2.5V08:30:0001:56:0100:00:00
BIOWL1-152026-09-06 00:46:0952.95440-0.05578306°9km/h27121m7m/s-49.3°C0.5%0hPa2.5V18:12:1501:55:5000:00:00
DM0DOS-112026-09-06 00:46:0852.95441-0.05582295°15km/h27128m5.4m/s-49.3°C3.3%0hPa2.5V08:30:0001:55:5100:00:00
DJ2DS-152026-09-06 00:46:0452.95441-0.05582296°9km/h27128m5.3m/s-49.3°C3.3%0hPa2.6V00:00:0001:55:5100:00:00
BIOWL9-152026-09-06 00:46:0152.95433-0.05577318°7km/h27091m5.5m/s-49.2°C0.9%-1.0hPa2.6V00:00:0000:00:0000:00:00
DM0DOS-112026-09-06 00:46:0052.95430-0.05556261°16km/h27061m6.5m/s-49.1°C3.3%0hPa2.6V08:30:0001:55:4000:00:00
BIOWL1-152026-09-06 00:45:5552.95439-0.05525175°7km/h27024m5.6m/s-49°C0.4%0hPa2.6V18:12:1501:55:3400:00:00
AU51GT22026-09-06 00:45:5052.95435-0.05528231°11km/h27036m6.9m/s0°C-1.0%-1.0hPa2.5V00:00:0000:00:0000:00:00
DM0DOS-112026-09-06 00:45:4852.95443-0.05523223°7km/h27006m5.3m/s-48.9°C3.3%0hPa2.5V08:30:0001:55:3100:00:00
BIOWL1-152026-09-06 00:45:4252.95449-0.05516212°11km/h26988m6.5m/s-48.8°C0.5%0hPa2.6V18:12:1501:55:2800:00:00
BIOWL1-152026-09-06 00:45:3252.95475-0.05484185°15km/h26933m6.2m/s-48.5°C0.3%0hPa2.5V18:12:1501:55:1900:00:00
BIOWL9-152026-09-06 00:45:3052.95481-0.05482197°7km/h26921m5.4m/s-48.4°C0.9%-1.0hPa2.5V00:00:0000:00:0000:00:00
DM0DOS-112026-09-06 00:45:2752.95490-0.05478236°11km/h26884m6.4m/s-48.4°C3.1%0hPa2.5V08:30:0001:55:1100:00:00
BIOWL1-152026-09-06 00:45:2152.95507-0.05464185°20km/h26855m5.3m/s-48.3°C0.3%0hPa2.5V18:12:1501:55:0600:00:00
DB0UT-72026-09-06 00:45:2152.95498-0.05467201°16km/h26867m6.7m/s-48.3°C3.1%0hPa2.6V00:00:0001:55:0800:00:00
AU51GT22026-09-06 00:45:1952.95512-0.05463186°18km/h26849m6.8m/s0°C-1.0%-1.0hPa2.6V00:00:0000:00:0000:00:00
DM0DOS-112026-09-06 00:45:1752.95526-0.05466130°11km/h26825m6.7m/s-48.4°C3%0hPa2.6V08:30:0001:55:0100:00:00
BIOWL1-152026-09-06 00:45:0952.95544-0.05486159°11km/h26765m6.4m/s-49°C0.4%0hPa2.6V18:12:1501:54:5100:00:00
DM0DOS-112026-09-06 00:45:0752.95544-0.05486158°11km/h26765m6.4m/s-49°C3.2%0hPa2.6V08:30:0001:54:5100:00:00
BIOWL1-152026-09-06 00:45:0052.95560-0.05514129°16km/h26730m6.9m/s-49.3°C0.4%0hPa2.5V18:12:1501:54:4500:00:00
BIOWL9-152026-09-06 00:44:5952.95560-0.05514128°16km/h26730m6.9m/s-49.3°C0.9%-1.0hPa2.5V00:00:0000:00:0000:00:00
DM0DOS-112026-09-06 00:44:5652.95570-0.05531129°15km/h26705m5.8m/s-49.4°C3.2%0hPa2.5V08:30:0001:54:4100:00:00
BIOWL1-152026-09-06 00:44:4752.95582-0.05549153°13km/h26664m5.5m/s-49.7°C0.4%0hPa2.5V18:12:1501:54:3400:00:00
DM0DOS-112026-09-06 00:44:4652.95589-0.05555137°5km/h26646m4.9m/s-49.7°C3.3%0hPa2.6V08:30:0001:54:3100:00:00
BIOWL1-152026-09-06 00:44:4152.95591-0.0558238°7km/h26608m5.3m/s-50.1°C0.5%0hPa2.6V18:12:1501:54:2400:00:00
DM0DOS-112026-09-06 00:44:3652.95585-0.0559047°11km/h26593m5.1m/s-50.2°C3.5%0hPa2.5V08:30:0001:54:2100:00:00
BIOWL1-152026-09-06 00:44:2752.95578-0.0560350°9km/h26543m5.9m/s-50.1°C0.5%0hPa2.6V18:12:1501:54:1200:00:00
DM0DOS-112026-09-06 00:44:2652.95576-0.0560653°9km/h26537m4.5m/s-50°C3.4%0hPa2.5V08:30:0001:54:1100:00:00
DJ2DS-152026-09-06 00:44:2352.95575-0.0560833°7km/h26533m5.0m/s-49.9°C3.4%0hPa2.5V00:00:0001:54:1000:00:00
DM0DOS-112026-09-06 00:44:1652.95571-0.0558712°4km/h26483m5.1m/s-49.8°C3.3%0hPa2.5V08:30:0001:54:0100:00:00
BIOWL1-152026-09-06 00:44:1552.95572-0.05587292°4km/h26488m5.9m/s-49.8°C0.5%0hPa2.5V18:12:1501:54:0200:00:00
BIOWL1-152026-09-06 00:44:0752.95570-0.05594248°5km/h26436m5.8m/s-50°C0.5%0hPa2.5V18:12:1501:53:5200:00:00
DM0DOS-112026-09-06 00:44:0652.95573-0.05589208°13km/h26424m5.1m/s-50°C3.4%0hPa2.5V08:30:0001:53:5000:00:00
DJ2DS-152026-09-06 00:44:0352.95573-0.05589209°11km/h26424m5.1m/s-50.0°C3.4%0hPa2.5V00:00:0001:53:5000:00:00
BIOWL9-152026-09-06 00:43:5752.95589-0.05572178°9km/h26386m4.8m/s0°C-1.0%-1.0hPa2.5V00:00:0000:00:0000:00:00
DM0DOS-112026-09-06 00:43:5552.95595-0.05573165°4km/h26369m5.1m/s-50°C3.4%0hPa2.5V08:30:0001:53:4000:00:00
BIOWL1-152026-09-06 00:43:5552.95591-0.05572170°9km/h26380m5.1m/s-50°C0.5%0hPa2.5V18:12:1501:53:4200:00:00
DM0DOS-112026-09-06 00:43:4552.95625-0.05558208°22km/h26314m4m/s-50.1°C3.3%0hPa2.5V08:30:0001:53:3000:00:00
BIOWL1-152026-09-06 00:43:4452.95625-0.05558208°22km/h26314m4m/s-50.1°C0.5%0hPa2.5V18:12:1501:53:3000:00:00
DJ2DS-152026-09-06 00:43:4352.95625-0.05558209°15km/h26315m4.0m/s-50.0°C3.3%0hPa2.6V00:00:0001:53:3000:00:00
DM0DOS-112026-09-06 00:43:3552.95656-0.05562165°9km/h26259m5.4m/s-50.2°C3.4%0hPa2.6V08:30:0001:53:2000:00:00
BIOWL1-152026-09-06 00:43:3252.95658-0.05563193°7km/h26254m5.1m/s-50.3°C0.5%0hPa2.6V18:12:1501:53:1900:00:00
DM0DOS-112026-09-06 00:43:2552.95687-0.05559150°26km/h26205m5.5m/s-50.5°C3.4%0hPa2.5V08:30:0001:53:1000:00:00
BIOWL1-152026-09-06 00:43:2252.95693-0.05564148°26km/h26200m4.4m/s-50.5°C0.5%0hPa2.5V18:12:1501:53:0900:00:00
DB0UT-72026-09-06 00:43:1752.95710-0.05587145°9km/h26172m5.8m/s-50.8°C3.5%0hPa2.6V00:00:0000:00:0000:00:00
DM0DOS-112026-09-06 00:43:1552.95720-0.05593199°7km/h26149m5.2m/s-50.8°C3.5%0hPa2.6V08:30:0001:53:0000:00:00
BIOWL1-152026-09-06 00:43:1252.95722-0.05592201°11km/h26144m5.1m/s-50.8°C0.6%0hPa2.6V18:12:1501:52:5900:00:00
DM0DOS-112026-09-06 00:43:0552.95744-0.05596102°9km/h26095m6.7m/s-50.7°C3.5%0hPa2.5V08:30:0001:52:5000:00:00
BIOWL1-152026-09-06 00:43:0152.95750-0.05608144°9km/h26072m6.4m/s-50.8°C0.6%0hPa2.5V18:12:1501:52:4600:00:00
DM0DOS-112026-09-06 00:42:5552.95762-0.0562089°9km/h26039m6.6m/s-50.9°C3.5%0hPa2.6V08:30:0001:52:4000:00:00
BIOWL1-152026-09-06 00:42:5352.95759-0.0562851°15km/h26027m4.7m/s-50.9°C0.6%0hPa2.5V18:12:1501:52:3800:00:00
DM0DOS-112026-09-06 00:42:4552.95752-0.05646138°7km/h25981m5.9m/s-51°C3.6%0hPa2.6V08:30:0001:52:3000:00:00
BIOWL1-152026-09-06 00:42:4052.95755-0.0565683°9km/h25963m6.2m/s-50.9°C0.6%0hPa2.5V18:12:1501:52:2700:00:00
DM0DOS-112026-09-06 00:42:3552.95749-0.05673320°5km/h25923m6.5m/s-50.7°C3.5%0hPa2.5V08:30:0001:52:2000:00:00
BIOWL1-152026-09-06 00:42:3152.95747-0.05667150°2km/h25900m5.1m/s-50.6°C0.6%0hPa2.6V18:12:1501:52:1600:00:00
DM0DOS-112026-09-06 00:42:2552.95739-0.0568564°13km/h25865m5.3m/s-50.7°C3.5%0hPa2.6V08:30:0001:52:1000:00:00
BIOWL1-152026-09-06 00:42:1952.95731-0.05691319°9km/h25842m4.9m/s-50.6°C0.6%0hPa2.5V18:12:1501:52:0600:00:00
DM0DOS-112026-09-06 00:42:1552.95726-0.0568319°9km/h25808m5.6m/s-50.5°C3.5%0hPa2.5V08:30:0001:52:0000:00:00
BIOWL1-152026-09-06 00:42:0952.95710-0.0570826°20km/h25773m5.1m/s-50.7°C0.7%0hPa2.5V18:12:1501:51:5400:00:00
DM0DOS-112026-09-06 00:42:0652.95697-0.05715357°7km/h25750m5.1m/s-50.7°C3.6%0hPa2.5V08:30:0001:51:5000:00:00
BIOWL1-152026-09-06 00:41:5752.95682-0.0570931°11km/h25715m5.1m/s-50.5°C0.7%0hPa2.5V18:12:1501:51:4400:00:00
DM0DOS-112026-09-06 00:41:5652.95667-0.0571918km/h25693m5m/s-50.4°C3.5%0hPa2.6V08:30:0001:51:4000:00:00
BIOWL1-152026-09-06 00:41:4852.95645-0.05712329°13km/h25653m5.1m/s-50.2°C0.6%0hPa2.5V18:12:1501:51:3300:00:00
DM0DOS-112026-09-06 00:41:4652.95638-0.05706339°7km/h25635m4.9m/s-50.1°C3.5%0hPa2.6V08:30:0001:51:3000:00:00
DB0UT-72026-09-06 00:41:4252.95636-0.05705344°11km/h25630m5.7m/s-50.1°C3.5%0hPa2.5V00:00:0001:51:2900:00:00
DJ2DS-152026-09-06 00:41:4152.95633-0.05703345°9km/h25624m6.9m/s-50.0°C3.5%0hPa2.5V00:00:0001:51:2800:00:00
DM0DOS-112026-09-06 00:41:3652.95613-0.05689313°5km/h25578m6.2m/s-49.9°C3.4%0hPa2.5V08:30:0001:51:2000:00:00
BIOWL1-152026-09-06 00:41:3552.95615-0.05693303°4km/h25589m5.2m/s-49.9°C0.5%0hPa2.5V18:12:1501:51:2200:00:00
DM0DOS-112026-09-06 00:41:2552.95591-0.05684352°9km/h25519m6m/s-49.6°C3.4%0hPa2.5V08:30:0001:51:1000:00:00
BIOWL1-152026-09-06 00:41:2452.95591-0.05684353°9km/h25519m6m/s-49.6°C0.6%0hPa2.5V18:12:1501:51:1000:00:00
DJ2DS-152026-09-06 00:41:2152.95587-0.05682323°11km/h25509m5.0m/s-49.5°C3.4%0hPa2.6V00:00:0001:51:0800:00:00
DM0DOS-112026-09-06 00:41:1552.95573-0.05653327°11km/h25462m6.6m/s-49.4°C3.4%0hPa2.5V08:30:0001:51:0000:00:00
BIOWL1-152026-09-06 00:41:1352.95571-0.05650319°11km/h25456m6.1m/s-49.3°C0.5%0hPa2.5V18:12:1501:50:5900:00:00
DB0UT-72026-09-06 00:41:1252.95571-0.05650320°13km/h25456m6.1m/s-49.3°C3.4%0hPa2.5V00:00:0000:00:0008:30:00
DM0DOS-112026-09-06 00:41:0452.95565-0.05610282°20km/h25402m6.7m/s-49.2°C3.4%0hPa2.6V08:30:0001:50:5000:00:00
BIOWL1-152026-09-06 00:41:0252.95565-0.05590258°13km/h25385m6.8m/s-49.1°C0.5%0hPa2.5V18:12:1501:50:4700:00:00
DJ2DS-152026-09-06 00:41:0152.95564-0.05596272°16km/h25391m5.5m/s-49.1°C3.3%0hPa2.6V00:00:0001:50:4800:00:00
DM0DOS-112026-09-06 00:40:5752.95579-0.05579246°18km/h25344m6.7m/s-48.8°C3.2%0hPa2.6V08:30:0001:50:4000:00:00
BIOWL1-152026-09-06 00:40:4952.95590-0.05534243°29km/h25320m5.2m/s-48.7°C0.4%0hPa2.5V18:12:1501:50:3600:00:00
BIOWL1-152026-09-06 00:40:3952.95619-0.05490219°26km/h25262m6m/s-48.4°C0.3%0hPa2.5V18:12:1501:50:2600:00:00
DM0DOS-112026-09-06 00:40:3452.95648-0.05460210°22km/h25230m5.6m/s-48.7°C3.1%0hPa2.5V08:30:0001:50:2000:00:00
BIOWL1-152026-09-06 00:40:2852.95666-0.05436194°18km/h25203m6.4m/s-49°C0.3%0hPa2.5V18:12:1501:50:1500:00:00
DM0DOS-112026-09-06 00:40:2652.95698-0.05430190°31km/h25175m5m/s-49.2°C3.2%0hPa2.5V08:30:0001:50:1000:00:00
BIOWL1-152026-09-06 00:40:1552.95770-0.05405174°24km/h25122m4.3m/s-49.8°C0.4%0hPa2.5V18:12:1501:50:0000:00:00
DM0DOS-112026-09-06 00:40:1452.95771-0.05405173°24km/h25122m4.3m/s-49.8°C3.2%0hPa2.5V08:30:0001:50:0000:00:00
DB0UT-72026-09-06 00:40:1152.95783-0.05406179°33km/h25112m6.2m/s-49.8°C3.2%0hPa2.6V00:00:0000:00:0000:00:00
DM0DOS-112026-09-06 00:40:0752.95852-0.05424163°37km/h25069m4.3m/s-50.1°C3.3%0hPa2.6V08:30:0001:49:5000:00:00
BIOWL1-152026-09-06 00:40:0452.95860-0.05429159°38km/h25064m6.1m/s-50.2°C0.4%0hPa2.5V18:12:1501:49:4900:00:00
DJ2DS-152026-09-06 00:40:0152.95869-0.05435156°31km/h25059m5.0m/s-50.2°C3.3%0hPa2.6V00:00:0001:49:4800:00:00
DM0DOS-112026-09-06 00:39:5452.95946-0.05463162°40km/h25018m4.3m/s-50.9°C3.4%0hPa2.6V08:30:0001:49:4000:00:00
BIOWL1-152026-09-06 00:39:5152.95963-0.05472165°31km/h25008m5.3m/s-51.1°C0.6%0hPa2.5V18:12:1501:49:3800:00:00
DM0DOS-112026-09-06 00:39:4452.96011-0.05490160°24km/h24964m3.6m/s-51.6°C3.7%0hPa2.5V08:30:0001:49:3000:00:00
BIOWL1-152026-09-06 00:39:4152.96023-0.05499149°29km/h24955m6.3m/s-51.6°C0.7%0hPa2.6V18:12:1501:49:2800:00:00
DJ2DS-152026-09-06 00:39:4152.96023-0.05499150°22km/h24955m6.3m/s-51.5°C3.7%0hPa2.5V00:00:0001:49:2800:00:00
DM0DOS-112026-09-06 00:39:3452.96067-0.05547143°16km/h24911m5m/s-51.4°C3.7%0hPa2.5V08:30:0001:49:2000:00:00
BIOWL1-152026-09-06 00:39:3352.96073-0.05552163°13km/h24900m5.2m/s-51.4°C0.7%0hPa2.6V18:12:1501:49:1800:00:00
DM0DOS-112026-09-06 00:39:2452.96103-0.05591141°20km/h24858m4m/s-51.1°C3.6%0hPa2.5V08:30:0001:49:1000:00:00
BIOWL1-152026-09-06 00:39:2052.96112-0.05609119°18km/h24842m4.8m/s-51.1°C0.7%0hPa2.6V18:12:1501:49:0700:00:00
DM0DOS-112026-09-06 00:39:1452.96132-0.05636130°20km/h24804m4.9m/s-50.8°C3.6%0hPa2.6V08:30:0001:49:0000:00:00
BIOWL1-152026-09-06 00:39:1052.96151-0.05681100°11km/h24760m6.7m/s0°C0%0hPa2.5V18:12:1501:48:5200:00:00
DM0DOS-112026-09-06 00:39:0752.96152-0.05687121°5km/h24749m4.1m/s-50.6°C3.5%0hPa2.6V08:30:0001:48:5000:00:00
BIOWL1-152026-09-06 00:38:5552.96167-0.05726118°26km/h24706m6.1m/s0°C0%0hPa2.5V18:12:1501:48:4200:00:00
DM0DOS-112026-09-06 00:38:5452.96173-0.05746110°26km/h24696m4.8m/s-50.2°C3.5%0hPa2.5V08:30:0001:48:4000:00:00
DM0DOS-112026-09-06 00:38:4952.96178-0.05796102°16km/h24642m6.3m/s-50.2°C3.5%0hPa2.5V08:30:0001:48:3000:00:00
BIOWL1-152026-09-06 00:38:4552.96177-0.05786102°9km/h24652m4.6m/s0°C0%0hPa2.5V18:12:1501:48:3200:00:00
DJ2DS-152026-09-06 00:38:4152.96180-0.05814103°18km/h24631m5.2m/s-50.2°C3.5%0hPa2.5V00:00:0001:48:2800:00:00
DM0DOS-112026-09-06 00:38:3852.96188-0.0587883°11km/h24586m6.6m/s-50°C3.4%0hPa2.5V08:30:0001:48:2000:00:00
BIOWL1-152026-09-06 00:38:3452.96188-0.0587382°13km/h24592m5.6m/s0°C0%0hPa2.5V18:12:1501:48:2100:00:00
DB0UT-72026-09-06 00:38:3152.96188-0.05886100°16km/h24576m3.9m/s-49.9°C3.4%0hPa2.5V00:00:0001:48:1800:00:00
DM0DOS-112026-09-06 00:38:2852.96185-0.0595162°11km/h24534m4.6m/s-49.8°C3.4%0hPa2.5V08:30:0001:48:1000:00:00
BIOWL1-152026-09-06 00:38:2352.96185-0.0595162°11km/h24534m4.6m/s0°C0%0hPa2.5V18:12:1501:48:1000:00:00
DJ2DS-152026-09-06 00:38:2152.96181-0.0595954°15km/h24522m5.8m/s-49.7°C3.4%0hPa2.5V00:00:0001:48:0800:00:00
DM0DOS-112026-09-06 00:38:1852.96185-0.06002108°20km/h24476m5m/s-49.6°C3.4%0hPa2.6V08:30:0001:48:0000:00:00
DB0UT-72026-09-06 00:38:0152.96190-0.06075119°20km/h24408m6.3m/s-49.5°C3.3%0hPa2.5V00:00:0000:00:0000:00:00
DM0DOS-112026-09-06 00:37:5852.96196-0.06101105°7km/h24379m4.3m/s-49.5°C3.3%0hPa2.6V08:30:0001:47:4300:00:00
DM0DOS-112026-09-06 00:37:4852.96231-0.06163121°24km/h24322m5.4m/s-49.8°C3.4%0hPa2.6V08:30:0001:47:3300:00:00
DJ2DS-152026-09-06 00:37:4152.96237-0.06196104°26km/h24293m6.3m/s-49.9°C3.5%0hPa2.5V00:00:0001:47:2800:00:00
DM0DOS-112026-09-06 00:37:3852.96254-0.06238135°27km/h24264m4.4m/s-50°C3.5%0hPa2.5V08:30:0001:47:2300:00:00
DB0UT-72026-09-06 00:37:3152.96271-0.06292107°24km/h24235m6.4m/s-49.8°C3.5%0hPa2.6V00:00:0001:47:1800:00:00
DM0DOS-112026-09-06 00:37:2852.96281-0.06342111°29km/h24204m5.1m/s-49.8°C3.4%0hPa2.6V08:30:0001:47:1300:00:00
DJ2DS-152026-09-06 00:37:2152.96299-0.06390114°22km/h24173m6.0m/s-49.5°C3.4%0hPa2.6V00:00:0001:47:0808:30:00
DM0DOS-112026-09-06 00:37:1852.96304-0.0643388°22km/h24144m6.7m/s-49.4°C3.3%0hPa2.6V08:30:0001:47:0300:00:00
DJ2DS-152026-09-06 00:37:0152.96314-0.0656894°22km/h24057m4.7m/s-49.2°C3.2%0hPa2.5V00:00:0001:46:4800:00:00
DM0DOS-112026-09-06 00:36:5852.96326-0.06640114°22km/h24015m5.5m/s-49.7°C3.3%0hPa2.5V08:30:0001:46:4100:00:00
DM0DOS-112026-09-06 00:36:4852.96338-0.0671396°22km/h23955m4.9m/s-50°C3.4%0hPa2.6V08:30:0001:46:3100:00:00
DJ2DS-152026-09-06 00:36:4152.96342-0.06736127°13km/h23938m6.1m/s-50.0°C3.4%0hPa2.6V00:00:0001:46:2800:00:00
DM0DOS-112026-09-06 00:36:3852.96357-0.06778125°15km/h23895m5.5m/s-50.1°C3.3%0hPa2.6V08:30:0001:46:2100:00:00
DB0UT-72026-09-06 00:36:3152.96360-0.0679393°22km/h23878m4.4m/s-50.1°C3.3%0hPa2.5V00:00:0001:46:1808:30:00
DM0DOS-112026-09-06 00:36:2852.96367-0.06812108°9km/h23839m4.7m/s-50.3°C3.3%0hPa2.5V08:30:0001:46:1100:00:00
DJ2DS-152026-09-06 00:36:2152.96370-0.06819167°9km/h23822m5.8m/s-50.4°C3.4%0hPa2.5V00:00:0001:46:0800:00:00
DM0DOS-112026-09-06 00:36:1852.96388-0.06822186°15km/h23782m5.2m/s-50.8°C3.5%0hPa2.5V08:30:0001:46:0100:00:00
DM0DOS-112026-09-06 00:36:0852.96405-0.06833132°11km/h23727m5.1m/s-51.3°C3.6%0hPa2.6V08:30:0001:45:5100:00:00
DJ2DS-152026-09-06 00:36:0152.96414-0.06839172°22km/h23710m5.0m/s-51.2°C3.6%0hPa2.5V00:00:0001:45:4800:00:00
DM0DOS-112026-09-06 00:35:5852.96448-0.06847153°22km/h23670m5.4m/s-51.2°C3.6%0hPa2.5V08:30:0001:45:4100:00:00
DM0DOS-112026-09-06 00:35:4852.96491-0.06916144°24km/h23617m5.9m/s-50.9°C3.4%0hPa2.5V08:30:0001:45:3100:00:00
DJ2DS-152026-09-06 00:35:4152.96507-0.06932151°31km/h23600m5.2m/s-50.9°C3.5%0hPa2.5V00:00:0001:45:2800:00:00
DM0DOS-112026-09-06 00:35:3852.96547-0.06976127°31km/h23562m5.7m/s-50.8°C3.4%0hPa2.5V08:30:0001:45:2100:00:00
DM0DOS-112026-09-06 00:35:2852.96600-0.07074137°33km/h23510m5.8m/s-51.6°C3.5%0hPa2.6V08:30:0001:45:1100:00:00
DJ2DS-152026-09-06 00:35:2152.96616-0.07101133°27km/h23494m5.2m/s-51.6°C3.5%0hPa2.5V00:00:0001:45:0800:00:00
DM0DOS-112026-09-06 00:35:1852.96642-0.07176129°27km/h23459m4.4m/s-51.7°C3.5%0hPa2.6V08:30:0001:45:0100:00:00
DM0DOS-112026-09-06 00:35:0852.96677-0.07268112°24km/h23409m4m/s-52.5°C3.7%0hPa2.5V08:30:0001:44:5100:00:00
DJ2DS-152026-09-06 00:35:0152.96688-0.07291146°24km/h23393m4.7m/s-52.6°C3.7%0hPa2.6V00:00:0001:44:4800:00:00
DM0DOS-112026-09-06 00:34:5852.96733-0.07344127°20km/h23357m5.8m/s-52.7°C3.7%0hPa2.6V08:30:0001:44:4100:00:00
DM0DOS-112026-09-06 00:34:4852.96758-0.07409149°24km/h23303m5.3m/s-53.1°C3.8%0hPa2.5V08:30:0001:44:3100:00:00
DJ2DS-152026-09-06 00:34:4152.96772-0.07425138°20km/h23289m5.6m/s-53.3°C3.9%0hPa2.5V00:00:0001:44:2800:00:00
DM0DOS-112026-09-06 00:34:3852.96789-0.07466123°22km/h23254m4.8m/s-53.4°C3.9%0hPa2.5V08:30:0001:44:2100:00:00
DB0UT-72026-09-06 00:34:3152.96802-0.07489137°16km/h23238m4.5m/s-53.3°C4.0%0hPa2.5V00:00:0001:44:1800:00:00
DM0DOS-112026-09-06 00:34:2852.96829-0.07535133°9km/h23202m5.3m/s-53.2°C3.9%0hPa2.5V08:30:0001:44:1100:00:00
BIOWL1-152026-09-06 00:34:2552.96827-0.07533148°11km/h23207m4.8m/s-53.2°C0.9%0hPa2.5V18:12:1501:44:1200:00:00
DJ2DS-152026-09-06 00:34:2152.96833-0.07549114°16km/h23187m4.9m/s-53.2°C4.0%0hPa2.6V00:00:0001:44:0808:30:00
DM0DOS-112026-09-06 00:34:1852.96857-0.07595130°20km/h23151m3.9m/s-53.1°C3.9%0hPa2.6V08:30:0001:44:0100:00:00
BIOWL1-152026-09-06 00:34:1652.96857-0.07595130°20km/h23151m3.9m/s-53.1°C0.9%0hPa2.6V18:12:1501:44:0100:00:00
DM0DOS-112026-09-06 00:34:0852.96873-0.07607149°18km/h23100m5m/s-52.8°C3.8%0hPa2.6V08:30:0001:43:5100:00:00
BIOWL1-152026-09-06 00:34:0452.96874-0.07607150°18km/h23100m5m/s-52.8°C0.8%0hPa2.6V18:12:1501:43:5100:00:00
DB0UT-72026-09-06 00:34:0152.96886-0.07625134°16km/h23084m4.9m/s-52.6°C3.8%0hPa2.5V00:00:0000:00:0000:00:00
DM0DOS-112026-09-06 00:33:5852.96908-0.07653109°5km/h23046m4.9m/s-52.6°C3.7%0hPa2.5V08:30:0001:43:4100:00:00
BIOWL1-152026-09-06 00:33:5652.96908-0.07653109°5km/h23046m4.9m/s-52.6°C0.7%0hPa2.5V18:12:1501:43:4100:00:00
BIOWL1-152026-09-06 00:33:4352.96941-0.07694142°11km/h22981m5.7m/s-52.7°C0.8%0hPa2.5V18:12:1501:43:2900:00:00
DJ2DS-152026-09-06 00:33:4152.96943-0.07697149°22km/h22976m5.3m/s-52.6°C3.7%0hPa2.6V00:00:0001:43:2800:00:00
DM0DOS-112026-09-06 00:33:3752.96968-0.07739147°22km/h22937m4.5m/s-53.2°C3.8%0hPa2.6V08:30:0001:43:2100:00:00
BIOWL1-152026-09-06 00:33:3152.96986-0.07755153°16km/h22911m6.3m/s-53.5°C0.9%0hPa2.5V18:12:1501:43:1600:00:00
DB0UT-72026-09-06 00:33:3152.96980-0.07749151°22km/h22922m5.4m/s-53.3°C3.9%0hPa2.5V00:00:0001:43:1800:00:00
DM0DOS-112026-09-06 00:33:2752.97002-0.07794111°31km/h22884m5.2m/s-53.7°C4%0hPa2.5V08:30:0001:43:1100:00:00
BIOWL1-152026-09-06 00:33:1852.97022-0.07863112°24km/h22851m4.9m/s-53.7°C0.9%0hPa2.5V18:12:1501:43:0500:00:00
DM0DOS-112026-09-06 00:33:1752.97029-0.0789493°18km/h22829m6.2m/s-53.6°C4%0hPa2.5V08:30:0001:43:0100:00:00
DM0DOS-112026-09-06 00:33:0752.97039-0.07983103°20km/h22774m4.8m/s-53.2°C3.9%0hPa2.5V08:30:0001:42:5100:00:00
BIOWL1-152026-09-06 00:33:0252.97040-0.0800997°24km/h22759m5.4m/s-53.4°C0.9%0hPa2.5V18:12:1501:42:4800:00:00
DJ2DS-152026-09-06 00:33:0152.97040-0.0800998°24km/h22759m5.4m/s-53.3°C3.9%0hPa2.6V00:00:0001:42:4800:00:00
DM0DOS-112026-09-06 00:32:5752.97044-0.0809694°27km/h22719m5.5m/s-53.3°C4%0hPa2.6V08:30:0001:42:4100:00:00
BIOWL1-152026-09-06 00:32:5152.97044-0.0812577°20km/h22703m5.8m/s-53.2°C0.8%0hPa2.5V18:12:1501:42:3800:00:00
DM0DOS-112026-09-06 00:32:4752.97040-0.0817895°18km/h22663m5.7m/s-53°C3.8%0hPa2.5V08:30:0001:42:3100:00:00
DJ2DS-152026-09-06 00:32:4152.97045-0.08198126°13km/h22647m5.1m/s-53.2°C3.9%0hPa2.5V00:00:0001:42:2800:00:00
DM0DOS-112026-09-06 00:32:3752.97051-0.0823772°18km/h22609m6.1m/s-53.1°C3.9%0hPa2.5V08:30:0001:42:2100:00:00
DB0UT-72026-09-06 00:32:3152.97046-0.0826080°11km/h22594m5.9m/s-53.0°C3.9%0hPa2.6V00:00:0001:42:1800:00:00
DM0DOS-112026-09-06 00:32:2752.97047-0.08287101°9km/h22556m6.1m/s-53°C3.8%0hPa2.5V08:30:0001:42:1100:00:00
DJ2DS-152026-09-06 00:32:1852.97048-0.08316111°20km/h22523m4.4m/s-52.8°C3.8%0hPa2.5V00:00:0001:42:0500:00:00
DM0DOS-112026-09-06 00:32:1752.97052-0.08330119°5km/h22503m4.3m/s-52.8°C3.8%0hPa2.6V08:30:0001:42:0100:00:00
DM0DOS-112026-09-06 00:32:0752.97079-0.08348163°16km/h22451m6.1m/s-52.6°C3.7%0hPa2.6V08:30:0001:41:5100:00:00
DB0UT-72026-09-06 00:32:0152.97087-0.08354148°20km/h22436m5.8m/s-52.6°C3.6%0hPa2.5V00:00:0000:00:0000:00:00
DM0DOS-112026-09-06 00:31:5752.97106-0.08362165°22km/h22396m4.9m/s-53.6°C3.9%0hPa2.5V08:30:0001:41:4100:00:00
DM0DOS-112026-09-06 00:31:4752.97164-0.08382194°18km/h22344m4.7m/s-53.6°C4%0hPa2.5V08:30:0001:41:3100:00:00
DJ2DS-152026-09-06 00:31:4752.97155-0.08385183°22km/h22354m6.1m/s-53.5°C3.9%0hPa2.5V00:00:0001:41:3300:00:00
DM0DOS-112026-09-06 00:31:3752.97218-0.08425150°22km/h22292m5.7m/s-53.5°C4%0hPa2.5V08:30:0001:41:2100:00:00
DB0UT-72026-09-06 00:31:3152.97230-0.08432176°24km/h22276m5.4m/s-53.4°C4.0%0hPa2.6V00:00:0001:41:1800:00:00
DM0DOS-112026-09-06 00:31:2752.97264-0.08461144°33km/h22241m4m/s-53.2°C3.9%0hPa2.6V08:30:0001:41:1100:00:00
DJ2DS-152026-09-06 00:31:2652.97252-0.08446144°26km/h22252m5.8m/s-53.2°C3.9%0hPa2.6V00:00:0001:41:1300:00:00
DM0DOS-112026-09-06 00:31:1752.97313-0.08522146°16km/h22187m6.1m/s-53°C3.8%0hPa2.6V08:30:0001:41:0100:00:00
DM0DOS-112026-09-06 00:31:0752.97362-0.08594130°20km/h22133m5.7m/s-53.1°C3.9%0hPa2.5V08:30:0001:40:5100:00:00
DJ2DS-152026-09-06 00:31:0652.97353-0.08580140°24km/h22145m5.0m/s-53.0°C3.9%0hPa2.5V00:00:0001:40:5308:30:00
DB0UT-72026-09-06 00:31:0152.97372-0.08610145°24km/h22118m5.4m/s-53.0°C3.9%0hPa2.5V00:00:0000:00:0008:30:00
DM0DOS-112026-09-06 00:30:5752.97404-0.08670130°31km/h22080m4.4m/s-52.9°C3.8%0hPa2.5V08:30:0001:40:4100:00:00
DM0DOS-112026-09-06 00:30:4752.97431-0.08746119°20km/h22023m5.7m/s-52.6°C3.7%0hPa2.5V08:30:0001:40:3100:00:00
DJ2DS-152026-09-06 00:30:4652.97428-0.08732111°22km/h22035m5.8m/s-52.6°C3.7%0hPa2.6V00:00:0001:40:3300:00:00
DM0DOS-112026-09-06 00:30:3752.97457-0.08838107°18km/h21969m5.7m/s-53°C3.7%0hPa2.6V08:30:0001:40:2100:00:00
DB0UT-72026-09-06 00:30:3152.97459-0.0886091°27km/h21952m6.0m/s-53.1°C3.8%0hPa2.5V00:00:0001:40:1800:00:00
DM0DOS-112026-09-06 00:30:2752.97458-0.08920108°22km/h21914m4.9m/s-53.6°C3.8%0hPa2.5V08:30:0001:40:1100:00:00
DJ2DS-152026-09-06 00:30:2652.97456-0.0890290°27km/h21925m6.4m/s-53.3°C3.8%0hPa2.5V00:00:0001:40:1300:00:00
DM0DOS-112026-09-06 00:30:1752.97476-0.09010110°31km/h21857m6m/s-53.7°C3.9%0hPa2.5V08:30:0001:40:0100:00:00
DM0DOS-112026-09-06 00:30:0652.97504-0.09143109°33km/h21799m5.2m/s-54.1°C3.9%0hPa2.5V08:30:0001:39:5100:00:00
DJ2DS-152026-09-06 00:30:0652.97498-0.09117112°35km/h21811m6.3m/s-53.9°C3.9%0hPa2.6V00:00:0001:39:5300:00:00
DB0UT-72026-09-06 00:30:0152.97512-0.09183107°37km/h21782m6.4m/s-54.1°C3.9%0hPa2.6V00:00:0000:00:0000:00:00
DM0DOS-112026-09-06 00:29:5652.97525-0.0928197°31km/h21741m5.9m/s-54.7°C4.1%0hPa2.6V08:30:0001:39:4100:00:00
DM0DOS-112026-09-06 00:29:4652.97535-0.0942592°37km/h21684m5.1m/s-54.7°C4.1%0hPa2.6V08:30:0001:39:3100:00:00
BIOWL1-152026-09-06 00:29:4352.97535-0.0944187°38km/h21679m5.3m/s-54.6°C1%0hPa2.6V18:12:1501:39:3000:00:00
BIOWL1-152026-09-06 00:29:3152.97509-0.0962578°35km/h21610m6.3m/s-54.3°C0.9%0hPa2.5V18:12:1501:39:1800:00:00
BIOWL9-152026-09-06 00:29:2752.97501-0.0968080°33km/h21588m5.2m/s-54.4°C1.2%-1.0hPa2.5V00:00:0000:00:0000:00:00
DM0DOS-112026-09-06 00:29:2552.97493-0.0972059°33km/h21571m6m/s-54.6°C3.9%0hPa2.5V08:30:0001:39:1100:00:00
BIOWL1-152026-09-06 00:29:2052.97474-0.0978162°33km/h21542m6.7m/s-55.5°C1.1%0hPa2.5V18:12:1501:39:0600:00:00
BIOWL1-152026-09-06 00:29:1252.97442-0.0989257°37km/h21492m5.9m/s-55.4°C1.1%0hPa2.6V18:12:1501:38:5700:00:00
DM0DOS-112026-09-06 00:29:0752.97414-0.0995758°29km/h21458m6.3m/s-55.3°C4.3%0hPa2.6V08:30:0001:38:5100:00:00
BIOWL1-152026-09-06 00:28:5952.97394-0.1000958°37km/h21429m6m/s-55.3°C1%0hPa2.6V18:12:1501:38:4600:00:00
DM0DOS-112026-09-06 00:28:5652.97369-0.1006656°29km/h21403m5.8m/s-55.3°C4.3%0hPa2.6V08:30:0001:38:4100:00:00
BIOWL1-152026-09-06 00:28:4952.97347-0.1011643°24km/h21370m6.4m/s-55.1°C1.1%0hPa2.6V18:12:1501:38:3500:00:00
DM0DOS-112026-09-06 00:28:4752.97328-0.1014532°24km/h21348m6m/s-55°C4.3%0hPa2.5V08:30:0001:38:3100:00:00
BIOWL1-152026-09-06 00:28:3952.97280-0.1019236°31km/h21303m4.9m/s-54.8°C1%0hPa2.6V18:12:1501:38:2300:00:00
DM0DOS-112026-09-06 00:28:3652.97268-0.1020629°29km/h21292m5.8m/s-54.7°C4.2%0hPa2.5V08:30:0001:38:2100:00:00
DB0UT-72026-09-06 00:28:3152.97249-0.1022537°18km/h21276m5.4m/s-54.6°C4.1%0hPa2.5V00:00:0001:38:1800:00:00
DM0DOS-112026-09-06 00:28:2752.97208-0.1025918°24km/h21237m6.2m/s-54.5°C4.1%0hPa2.5V08:30:0001:38:1100:00:00
BIOWL1-152026-09-06 00:28:2652.97189-0.1027539°24km/h21216m4.8m/s-54.6°C0.9%0hPa2.6V18:12:1501:38:0700:00:00
DJ2DS-152026-09-06 00:28:2652.97219-0.1025128°20km/h21249m5.5m/s-54.5°C4.1%0hPa2.6V00:00:0001:38:1300:00:00
BIOWL9-152026-09-06 00:28:2552.97214-0.1025523°24km/h21243m5.4m/s-54.6°C1.2%-1.0hPa2.6V00:00:0000:00:0000:00:00
DM0DOS-112026-09-06 00:28:1752.97158-0.1030127°18km/h21185m5.7m/s-55.2°C4.3%0hPa2.6V08:30:0001:38:0100:00:00
BIOWL1-152026-09-06 00:28:1552.97152-0.1030839°15km/h21175m4.6m/s-55.2°C1%0hPa2.5V18:12:1501:37:5900:00:00
DM0DOS-112026-09-06 00:28:0752.97132-0.1032760°11km/h21131m5.7m/s-55.2°C4.3%0hPa2.5V08:30:0001:37:5100:00:00
BIOWL1-152026-09-06 00:28:0352.97131-0.10341104°13km/h21115m6.2m/s-55.1°C1.1%0hPa2.5V18:12:1501:37:4800:00:00
DB0UT-72026-09-06 00:28:0152.97131-0.10341104°9km/h21116m6.2m/s-55.1°C4.3%0hPa2.5V00:00:0000:00:0000:00:00
DM0DOS-112026-09-06 00:27:5652.97140-0.10356202°2km/h21077m6.4m/s-54.8°C4.3%0hPa2.5V08:30:0001:37:4100:00:00
BIOWL1-152026-09-06 00:27:5152.97140-0.10355175°2km/h21062m5.8m/s-54.7°C1%0hPa2.6V18:12:1501:37:3800:00:00
DM0DOS-112026-09-06 00:27:4752.97152-0.10367166°11km/h21024m3.3m/s-54.4°C4.1%0hPa2.5V08:30:0001:37:3100:00:00
BIOWL1-152026-09-06 00:27:4052.97160-0.10362206°11km/h20993m4.9m/s-54.2°C0.9%0hPa2.5V18:12:1501:37:2500:00:00
DM0DOS-112026-09-06 00:27:3652.97175-0.10359171°18km/h20967m6.2m/s-54°C4%0hPa2.5V08:30:0001:37:2000:00:00
BIOWL1-152026-09-06 00:27:3052.97189-0.10365152°16km/h20953m4.6m/s-54.1°C0.9%0hPa2.6V18:12:1501:37:1700:00:00
DM0DOS-112026-09-06 00:27:2752.97196-0.10371194°11km/h20920m5.2m/s-54.6°C4.1%0hPa2.6V08:30:0001:37:1000:00:00
BIOWL1-152026-09-06 00:27:1952.97240-0.10406148°18km/h20866m5.8m/s-54.3°C0.9%0hPa2.6V18:12:1501:37:0000:00:00
BIOWL7-152026-09-06 00:27:1852.97212-0.10377159°22km/h20896m5.7m/s0°C0%0hPa2.6V00:00:0000:00:0000:00:00
DM0DOS-112026-09-06 00:27:1652.97240-0.10406148°18km/h20866m5.8m/s-54.3°C4.1%0hPa2.6V08:30:0001:37:0000:00:00
BIOWL1-152026-09-06 00:27:0752.97273-0.10437157°18km/h20829m3.7m/s-54.3°C1%0hPa2.5V18:12:1501:36:5200:00:00
DM0DOS-112026-09-06 00:27:0652.97282-0.10444151°22km/h20820m5.2m/s-54.3°C4%0hPa2.5V08:30:0001:36:5000:00:00
DJ2DS-152026-09-06 00:27:0652.97269-0.10434153°22km/h20833m4.9m/s-54.3°C4.1%0hPa2.6V00:00:0001:36:5300:00:00
DB0UT-72026-09-06 00:27:0152.97292-0.10453147°26km/h20811m5.1m/s0°C0%0hPa2.5V00:00:0000:00:0000:00:00
DM0DOS-112026-09-06 00:26:5652.97312-0.10511125°22km/h20773m4.5m/s-54.3°C4.1%0hPa2.5V08:30:0001:36:4000:00:00
BIOWL1-152026-09-06 00:26:5452.97309-0.10504116°22km/h20778m4.8m/s-54.3°C0.9%0hPa2.5V18:12:1501:36:4100:00:00
BIOWL9-152026-09-06 00:26:5252.97320-0.10526139°27km/h20763m6.1m/s-54.3°C1.2%-1.0hPa2.5V00:00:0000:00:0000:00:00
DM0DOS-112026-09-06 00:26:4652.97359-0.10599113°31km/h20725m4.8m/s-54.2°C4.1%0hPa2.5V08:30:0001:36:3000:00:00
BIOWL1-152026-09-06 00:26:4452.97355-0.10587118°33km/h20730m5m/s-54.2°C1%0hPa2.6V18:12:1501:36:3100:00:00
DM0DOS-112026-09-06 00:26:3652.97393-0.10702129°29km/h20677m4.5m/s-54.3°C4%0hPa2.6V08:30:0001:36:2000:00:00
BIOWL1-152026-09-06 00:26:3352.97393-0.10702130°29km/h20678m4.5m/s-54.3°C0.9%0hPa2.6V18:12:1501:36:2000:00:00
DB0UT-72026-09-06 00:26:3152.97402-0.10723119°27km/h20668m3.7m/s0°C0%0hPa2.6V00:00:0001:36:1800:00:00
DM0DOS-112026-09-06 00:26:2652.97431-0.10808131°27km/h20631m4.7m/s-54.1°C4%0hPa2.6V08:30:0001:36:1000:00:00
BIOWL1-152026-09-06 00:26:2352.97431-0.10808131°27km/h20631m4.7m/s-54.2°C0.9%0hPa2.6V18:12:1501:36:1000:00:00
BIOWL9-152026-09-06 00:26:2152.97442-0.10836115°27km/h20619m5.2m/s0°C-1.0%-1.0hPa2.5V00:00:0000:00:0000:00:00
DM0DOS-112026-09-06 00:26:1652.97458-0.10916108°31km/h20583m4.6m/s-54.2°C4%0hPa2.5V08:30:0001:36:0000:00:00
BIOWL1-152026-09-06 00:26:1252.97460-0.10928112°29km/h20578m5.4m/s-54.2°C0.8%0hPa2.5V18:12:1501:35:5900:00:00
DM0DOS-112026-09-06 00:26:0652.97484-0.11013117°26km/h20536m5.1m/s-54.6°C4.1%0hPa2.5V08:30:0001:35:5000:00:00
BIOWL1-152026-09-06 00:26:0152.97495-0.11058104°31km/h20516m4.8m/s-54.9°C1%0hPa2.6V18:12:1501:35:4600:00:00
DM0DOS-112026-09-06 00:25:5652.97507-0.11146110°33km/h20486m4.6m/s-54.9°C4.2%0hPa2.5V08:30:0001:35:4000:00:00
BIOWL1-152026-09-06 00:25:4952.97519-0.11202107°35km/h20464m6.4m/s-54.8°C1%0hPa2.6V18:12:1501:35:3600:00:00
DM0DOS-112026-09-06 00:25:4652.97524-0.1127286°20km/h20432m5.5m/s-54.6°C4.1%0hPa2.6V08:30:0001:35:3000:00:00
BIOWL1-152026-09-06 00:25:4152.97526-0.11307102°20km/h20411m6.1m/s-54.4°C1%0hPa2.5V18:12:1501:35:2600:00:00
DM0DOS-112026-09-06 00:25:3652.97532-0.1136595°26km/h20380m6m/s-54.1°C4%0hPa2.5V08:30:0001:35:2000:00:00
BIOWL1-152026-09-06 00:25:2952.97533-0.1143679°22km/h20346m6m/s-54°C0.9%0hPa2.6V18:12:1501:35:1300:00:00
DM0DOS-112026-09-06 00:25:2752.97529-0.1146180°22km/h20331m5.8m/s-54°C4%0hPa2.5V08:30:0001:35:1000:00:00
DJ2DS-152026-09-06 00:25:2552.97532-0.1144471°24km/h20341m3.9m/s-53.9°C4.0%0hPa2.6V00:00:0001:35:1200:00:00
BIOWL1-152026-09-06 00:25:1952.97526-0.1165884°31km/h20233m4.9m/s-54.2°C0.9%0hPa2.6V18:12:1501:34:5100:00:00
DM0DOS-112026-09-06 00:25:1652.97529-0.1156574°20km/h20280m4.6m/s-54.3°C4%0hPa2.5V08:30:0001:35:0000:00:00
DM0DOS-112026-09-06 00:25:0652.97525-0.1167179°29km/h20228m6m/s-54.2°C4%0hPa2.6V08:30:0001:34:5000:00:00
BIOWL1-152026-09-06 00:25:0552.97523-0.1168273°27km/h20223m4.8m/s-54.3°C0.9%0hPa2.5V18:12:1501:34:4900:00:00
DJ2DS-152026-09-06 00:25:0552.97527-0.1164588°27km/h20238m3.7m/s-54.2°C4.0%0hPa2.5V00:00:0001:34:5208:30:00
DM0DOS-112026-09-06 00:24:5652.97506-0.1178986°29km/h20175m4.5m/s-54.7°C4.1%0hPa2.6V08:30:0001:34:4000:00:00
BIOWL1-152026-09-06 00:24:5152.97506-0.1181090°22km/h20164m5.5m/s-54.7°C0.9%0hPa2.5V18:12:1501:34:3800:00:00
DM0DOS-112026-09-06 00:24:4652.97503-0.1189188°27km/h20121m6.2m/s-54.7°C4%0hPa2.5V08:30:0001:34:3000:00:00
DJ2DS-152026-09-06 00:24:4552.97504-0.1187184°31km/h20132m4.4m/s-54.7°C4.1%0hPa2.5V00:00:0001:34:3200:00:00
DM0DOS-112026-09-06 00:24:3652.97508-0.1201787°29km/h20069m4m/s-55°C4.1%0hPa2.5V08:30:0001:34:2000:00:00
DM0DOS-112026-09-06 00:24:2652.97506-0.1216694°38km/h20016m6.1m/s-55.3°C4.2%0hPa2.5V08:30:0001:34:1000:00:00
BIOWL1-152026-09-06 00:24:2352.97506-0.1219888°42km/h20006m5.2m/s-55.4°C1.1%0hPa2.5V18:12:1501:34:0800:00:00
DM0DOS-112026-09-06 00:24:1652.97491-0.1236283°53km/h19965m4.2m/s-55.4°C4.3%0hPa2.6V08:30:0001:34:0000:00:00
BIOWL1-152026-09-06 00:24:0952.97486-0.1244284°46km/h19944m5.8m/s-55.4°C1%0hPa2.5V18:12:1501:33:5600:00:00
DM0DOS-112026-09-06 00:24:0652.97476-0.1255879°47km/h19913m5m/s-55.5°C4.3%0hPa2.7V08:30:0001:33:5000:00:00
BIOWL1-152026-09-06 00:23:5952.97466-0.1263277°42km/h19893m4.8m/s-55.4°C1.1%0hPa2.5V18:12:1501:33:4600:00:00
DM0DOS-112026-09-06 00:23:5652.97460-0.1272990°38km/h19862m5.9m/s-55.3°C4.3%0hPa2.5V08:30:0001:33:4000:00:00
BIOWL1-152026-09-06 00:23:4952.97459-0.1279186°33km/h19842m4m/s-55.2°C1.1%0hPa2.5V18:12:1501:33:3600:00:00
DM0DOS-112026-09-06 00:23:4652.97451-0.1287572°31km/h19811m4.6m/s-55.2°C4.3%0hPa2.5V08:30:0001:33:3000:00:00
BIOWL1-152026-09-06 00:23:3752.97438-0.1296481°33km/h19778m5.7m/s-55.1°C1%0hPa2.6V18:12:1501:33:2300:00:00
DM0DOS-112026-09-06 00:23:3652.97435-0.1300682°31km/h19764m5.2m/s-55.1°C4.2%0hPa2.5V08:30:0001:33:2000:00:00
DM0DOS-112026-09-06 00:23:2652.97432-0.1311591°27km/h19714m5.1m/s-55.1°C4.2%0hPa2.7V08:30:0001:33:1000:00:00
BIOWL1-152026-09-06 00:23:2652.97431-0.1308587°22km/h19728m4.6m/s-55.1°C1%0hPa2.5V18:12:1501:33:1300:00:00
DJ2DS-152026-09-06 00:23:2552.97431-0.1309492°29km/h19723m4.1m/s0°C0%0hPa2.6V00:00:0001:33:1200:00:00
DM0DOS-112026-09-06 00:23:1652.97451-0.13232119°27km/h19666m3.6m/s-55°C4.2%0hPa2.6V08:30:0001:33:0000:00:00
BIOWL1-152026-09-06 00:23:1552.97451-0.13232119°27km/h19666m3.6m/s-55°C1.1%0hPa2.6V18:12:1501:33:0000:00:00
BIOWL9-152026-09-06 00:23:1452.97448-0.13222117°27km/h19670m3.9m/s-55.0°C1.3%-1.0hPa2.6V00:00:0000:00:0000:00:00
DM0DOS-112026-09-06 00:23:0852.97496-0.13346120°37km/h19616m5.4m/s-55°C4.2%0hPa2.6V08:30:0001:32:5000:00:00
BIOWL1-152026-09-06 00:23:0452.97500-0.13359119°35km/h19611m3.6m/s-55.1°C1%0hPa2.5V18:12:1501:32:4900:00:00
DJ2DS-152026-09-06 00:23:0352.97496-0.13346121°47km/h19616m5.4m/s0°C0%0hPa2.7V00:00:0001:32:5000:00:00
DM0DOS-112026-09-06 00:22:5652.97545-0.13490124°44km/h19568m4.3m/s-55.3°C4.2%0hPa2.7V08:30:0001:32:4000:00:00
BIOWL1-152026-09-06 00:22:5152.97557-0.13520123°42km/h19559m5.7m/s-55.3°C1%0hPa2.5V18:12:1501:32:3800:00:00
DM0DOS-112026-09-06 00:22:4652.97603-0.13653116°47km/h19519m4.1m/s-55.4°C4.2%0hPa2.6V08:30:0001:32:3000:00:00
BIOWL1-152026-09-06 00:22:4052.97618-0.13709114°47km/h19504m4.4m/s-55.5°C1.1%0hPa2.5V18:12:1501:32:2700:00:00
DM0DOS-112026-09-06 00:22:3652.97646-0.13835108°49km/h19467m5.2m/s-55.7°C4.3%0hPa2.5V08:30:0001:32:2000:00:00
DM0DOS-112026-09-06 00:22:2652.97674-0.1404696°46km/h19417m5.8m/s-55.7°C4.2%0hPa2.5V08:30:0001:32:1000:00:00
DM0DOS-112026-09-06 00:22:1652.97686-0.1425888°49km/h19368m5.8m/s-56.1°C4.3%0hPa2.7V08:30:0001:32:0000:00:00
DM0DOS-112026-09-06 00:22:0652.97670-0.1446574°57km/h19321m4m/s-56.5°C4.4%0hPa2.6V08:30:0001:31:5000:00:00
BIOWL1-152026-09-06 00:22:0152.97649-0.1463985°51km/h19283m4.5m/s-56.4°C1.2%0hPa2.5V18:12:1501:31:4200:00:00
DM0DOS-112026-09-06 00:21:5652.97647-0.1468084°47km/h19274m5.8m/s-56.6°C4.4%0hPa2.6V08:30:0001:31:4000:00:00
BIOWL1-152026-09-06 00:21:5152.97646-0.1471889°46km/h19264m5.8m/s-56.7°C1.2%0hPa2.7V18:12:1501:31:3800:00:00
DM0DOS-112026-09-06 00:21:4652.97641-0.1486388°46km/h19224m6m/s-57°C4.5%0hPa2.6V08:30:0001:31:3000:00:00
BIOWL1-152026-09-06 00:21:3952.97647-0.1499095°49km/h19193m5.2m/s-56.9°C1.3%0hPa2.7V18:12:1501:31:2400:00:00
DM0DOS-112026-09-06 00:21:3652.97653-0.15066100°46km/h19173m4.7m/s-57°C4.6%0hPa2.6V08:30:0001:31:2000:00:00
BIOWL1-152026-09-06 00:21:3352.97671-0.15204107°55km/h19138m6m/s-57°C1.3%0hPa2.7V18:12:1501:31:1300:00:00
DJ2DS-152026-09-06 00:21:3252.97655-0.1508599°51km/h19169m5.0m/s0°C0%0hPa2.6V00:00:0001:31:1900:00:00
DM0DOS-112026-09-06 00:21:2652.97683-0.15267111°53km/h19122m5.7m/s-56.9°C4.6%0hPa2.6V08:30:0001:31:1000:00:00
BIOWL1-152026-09-06 00:21:1652.97733-0.15547103°49km/h19049m6.3m/s-56.9°C1.3%0hPa2.7V18:12:1501:30:5600:00:00
DJ2DS-152026-09-06 00:21:1052.97730-0.15527107°49km/h19055m4.6m/s0°C0%0hPa2.7V00:00:0001:30:5700:00:00
DM0DOS-112026-09-06 00:21:0652.97742-0.1566991°47km/h19018m5.9m/s-56.8°C4.5%0hPa2.7V08:30:0001:30:5000:00:00
BIOWL1-152026-09-06 00:21:0252.97746-0.1577693°55km/h18990m6.2m/s-57°C1.2%0hPa2.6V18:12:1501:30:4500:00:00
BIOWL1-152026-09-06 00:20:5252.97749-0.1590186°44km/h18957m5.2m/s-57°C1.3%0hPa2.6V18:12:1501:30:3900:00:00
BIOWL1-152026-09-06 00:20:4252.97747-0.1613398°37km/h18883m4.7m/s-56.8°C1.3%0hPa2.7V18:12:1501:30:2500:00:00
BIOWL9-152026-09-06 00:20:3952.97745-0.16119101°33km/h18888m5.2m/s0°C-1.0%-1.0hPa2.7V00:00:0000:00:0000:00:00
DM0DOS-112026-09-06 00:20:3652.97749-0.1622095°42km/h18856m5.8m/s-56.7°C4.5%0hPa2.7V08:30:0001:30:2000:00:00
BIOWL1-152026-09-06 00:20:3352.97756-0.16302106°35km/h18829m5.2m/s-56.8°C1.2%0hPa2.7V18:12:1501:30:1500:00:00
DM0DOS-112026-09-06 00:20:2652.97768-0.16378104°42km/h18804m5.9m/s-56.8°C4.6%0hPa2.7V08:30:0001:30:1000:00:00
DM0DOS-112026-09-06 00:20:1652.97804-0.16554112°40km/h18750m5.3m/s-56.7°C4.6%0hPa2.6V08:30:0001:30:0000:00:00
DM0DOS-112026-09-06 00:20:0652.97843-0.16734105°42km/h18696m5.6m/s-56.5°C4.5%0hPa2.7V08:30:0001:29:5000:00:00
BIOWL1-152026-09-06 00:19:5652.97861-0.16855100°49km/h18659m5.6m/s-56.4°C1.2%0hPa2.6V18:12:1501:29:4300:00:00
DM0DOS-112026-09-06 00:19:5652.97867-0.1691596°46km/h18643m6.2m/s-56.3°C4.5%0hPa2.6V08:30:0001:29:4000:00:00
DM0DOS-112026-09-06 00:19:4652.97878-0.1708888°46km/h18592m4.5m/s-56.1°C4.5%0hPa2.6V08:30:0001:29:3000:00:00
BIOWL1-152026-09-06 00:19:4552.97877-0.1712685°47km/h18581m5.6m/s-56°C1.2%0hPa2.7V18:12:1501:29:2800:00:00
BIOWL1-152026-09-06 00:19:3652.97876-0.1725994°42km/h18545m3.7m/s-55.7°C1.1%0hPa2.6V18:12:1501:29:2100:00:00
DM0DOS-112026-09-06 00:19:3652.97876-0.1727692°40km/h18540m5.6m/s-55.6°C4.3%0hPa2.6V08:30:0001:29:2000:00:00
DM0DOS-112026-09-06 00:19:2652.97869-0.1745085°46km/h18489m3.7m/s-55.7°C4.4%0hPa2.6V08:30:0001:29:1000:00:00
BIOWL1-152026-09-06 00:19:2452.97870-0.1743087°47km/h18493m4.3m/s0°C0%0hPa2.7V18:12:1501:29:1100:00:00
DM0DOS-112026-09-06 00:19:1652.97859-0.1760186°40km/h18439m5.2m/s-55.6°C4.3%0hPa2.6V08:30:0001:29:0000:00:00
BIOWL1-152026-09-06 00:19:1452.97857-0.1763681°42km/h18429m6m/s0°C0%0hPa2.7V18:12:1501:28:5800:00:00
DM0DOS-112026-09-06 00:19:0452.97858-0.1775593°35km/h18388m4.1m/s-55.4°C4.3%0hPa2.6V08:30:0001:28:5000:00:00
BIOWL1-152026-09-06 00:19:0252.97858-0.1777096°37km/h18383m5.4m/s0°C0%0hPa2.6V18:12:1501:28:4900:00:00
DM0DOS-112026-09-06 00:18:5452.97862-0.1792294°38km/h18338m4.9m/s-55.2°C4.2%0hPa2.7V08:30:0001:28:4000:00:00
BIOWL1-152026-09-06 00:18:5152.97864-0.1795598°40km/h18327m4.3m/s0°C0%0hPa2.6V18:12:1501:28:3800:00:00
DM0DOS-112026-09-06 00:18:4452.97874-0.1808995°46km/h18289m5.3m/s-55.7°C4.3%0hPa2.7V08:30:0001:28:3000:00:00
DM0DOS-112026-09-06 00:18:3452.97891-0.1828296°40km/h18239m3.9m/s-55.7°C4.3%0hPa2.6V08:30:0001:28:2000:00:00
DM0DOS-112026-09-06 00:18:2452.97900-0.1846993°40km/h18193m5.4m/s-55.7°C4.3%0hPa2.6V08:30:0001:28:1000:00:00
DM0DOS-112026-09-06 00:18:1452.97909-0.1861897°46km/h18145m4.1m/s-55.7°C4.3%0hPa2.6V08:30:0001:28:0000:00:00
BIOWL1-152026-09-06 00:18:1252.97910-0.1863795°44km/h18141m5.4m/s0°C0%0hPa2.6V18:12:1501:27:5900:00:00
DM0DOS-112026-09-06 00:18:0752.97923-0.18775103°37km/h18097m4.3m/s-55.8°C4.3%0hPa2.6V08:30:0001:27:5000:00:00
BIOWL1-152026-09-06 00:18:0052.97927-0.1882293°40km/h18083m4m/s0°C0%0hPa2.6V18:12:1501:27:4700:00:00
DM0DOS-112026-09-06 00:17:5752.97935-0.18950105°42km/h18050m5.6m/s-56.1°C4.4%0hPa2.6V08:30:0001:27:4000:00:00
BIOWL1-152026-09-06 00:17:4852.97959-0.19066105°44km/h18018m4.1m/s0°C0%0hPa2.6V18:12:1501:27:3300:00:00
DM0DOS-112026-09-06 00:17:4752.97964-0.1911993°42km/h18004m5m/s-56.3°C4.5%0hPa2.6V08:30:0001:27:3000:00:00
BIOWL1-152026-09-06 00:17:3752.97976-0.19267101°44km/h17965m4.8m/s0°C0%0hPa2.6V18:12:1501:27:2200:00:00
BIOWL1-152026-09-06 00:17:2552.97977-0.1947586°42km/h17905m5.5m/s0°C0%0hPa2.7V18:12:1501:27:1000:00:00
BIOWL1-152026-09-06 00:17:1352.97980-0.1962298°27km/h17858m4m/s0°C0%0hPa2.6V18:12:1501:27:0000:00:00
BIOWL1-152026-09-06 00:17:0352.97989-0.1978585°38km/h17806m4.4m/s0°C0%0hPa2.6V18:12:1501:26:4900:00:00
DM0DOS-112026-09-06 00:16:4752.97979-0.2013393°46km/h17714m5.2m/s-56.8°C4.6%0hPa2.6V08:30:0001:26:3000:00:00
DM0DOS-112026-09-06 00:16:3652.97983-0.2032391°42km/h17664m3.7m/s-56.8°C4.7%0hPa2.7V08:30:0001:26:2000:00:00
DM0DOS-112026-09-06 00:16:2652.97994-0.20509100°44km/h17614m5m/s-56.5°C4.6%0hPa2.7V08:30:0001:26:1000:00:00
DM0DOS-112026-09-06 00:16:1652.98003-0.2069298°40km/h17566m4.1m/s-56.3°C4.5%0hPa2.6V08:30:0001:26:0000:00:00
DM0DOS-112026-09-06 00:16:0652.98027-0.20868106°33km/h17511m4.8m/s-56.3°C4.5%0hPa2.6V08:30:0001:25:4900:00:00
DM0DOS-112026-09-06 00:15:5552.98033-0.2105694°42km/h17453m3.9m/s-56.1°C4.4%0hPa2.7V08:30:0001:25:3700:00:00
DM0DOS-112026-09-06 00:15:3652.98031-0.2133388°42km/h17373m5.2m/s-56.3°C4.6%0hPa2.7V08:30:0001:25:2000:00:00
DM0DOS-112026-09-06 00:15:2652.98030-0.2150690°40km/h17324m5.6m/s-56.2°C4.5%0hPa2.6V08:30:0001:25:1000:00:00
DM0DOS-112026-09-06 00:15:1752.98029-0.2168093°47km/h17275m5.1m/s-56°C4.3%0hPa2.6V08:30:0001:25:0000:00:00
DM0DOS-112026-09-06 00:15:0652.98031-0.2187294°49km/h17228m5.1m/s-56.7°C4.6%0hPa2.6V08:30:0001:24:5000:00:00
DM0DOS-112026-09-06 00:14:5752.98035-0.2211288°57km/h17175m4.3m/s-56.6°C4.5%0hPa2.6V08:30:0001:24:4000:00:00
DM0DOS-112026-09-06 00:14:4652.98045-0.2234092°51km/h17125m5.1m/s-56.6°C4.5%0hPa2.7V08:30:0001:24:3000:00:00
DM0DOS-112026-09-06 00:14:3652.98042-0.2254686°46km/h17076m4m/s-57.4°C4.8%0hPa2.7V08:30:0001:24:2000:00:00
DM0DOS-112026-09-06 00:14:2652.98040-0.2273799°46km/h17030m5.4m/s-57.4°C4.8%0hPa2.6V08:30:0001:24:1000:00:00
DM0DOS-112026-09-06 00:14:1652.98054-0.22915100°37km/h16980m3.4m/s-57.5°C4.8%0hPa2.6V08:30:0001:24:0000:00:00
DM0DOS-112026-09-06 00:14:0652.98083-0.23081107°40km/h16933m4.5m/s-57.3°C4.7%0hPa2.6V08:30:0001:23:5000:00:00
DM0DOS-112026-09-06 00:13:5652.98108-0.23269102°47km/h16885m4.9m/s-57.3°C4.7%0hPa2.7V08:30:0001:23:4000:00:00
DM0DOS-112026-09-06 00:13:4652.98133-0.23471101°58km/h16839m4.6m/s-57.7°C4.9%0hPa2.7V08:30:0001:23:3000:00:00
DM0DOS-112026-09-06 00:13:3652.98158-0.23676106°47km/h16791m4.7m/s-57.9°C4.9%0hPa2.6V08:30:0001:23:2000:00:00
DM0DOS-112026-09-06 00:13:0452.98284-0.24417106°57km/h16628m4.9m/s-57.9°C5.1%0hPa2.7V08:30:0001:22:4600:00:00
DM0DOS-112026-09-06 00:12:5052.98336-0.24636114°49km/h16577m5.6m/s-57.8°C5.1%0hPa2.6V08:30:0001:22:3600:00:00
DM0DOS-112026-09-06 00:12:4452.98392-0.24824122°55km/h16529m5.2m/s0°C0%0hPa2.6V08:30:0001:22:2600:00:00
DM0DOS-112026-09-06 00:12:3052.98455-0.25033114°58km/h16480m5.2m/s0°C0%0hPa2.6V08:30:0001:22:1600:00:00
DM0DOS-112026-09-06 00:12:2452.98511-0.25276105°68km/h16430m4.9m/s0°C0%0hPa2.6V08:30:0001:22:0600:00:00
DM0DOS-112026-09-06 00:12:0652.98580-0.2573099°71km/h16354m4.4m/s0°C0%0hPa2.7V08:30:0001:21:5000:00:00
DM0DOS-112026-09-06 00:11:5652.98604-0.2601496°64km/h16305m4.3m/s0°C0%0hPa2.7V08:30:0001:21:4000:00:00
DM0DOS-112026-09-06 00:11:4652.98634-0.26279100°64km/h16257m5.4m/s0°C0%0hPa2.6V00:00:0001:21:3000:00:00
DM0DOS-112026-09-06 00:11:3652.98664-0.26553100°69km/h16207m4.9m/s0°C0%0hPa2.6V00:00:0001:21:2000:00:00
DM0DOS-112026-09-06 00:10:5152.98774-0.2788397°62km/h15982m4.3m/s0°C0%0hPa2.6V00:00:0001:20:3300:00:00
DM0DOS-112026-09-06 00:10:3652.98811-0.28165102°64km/h15930m4.9m/s0°C0%0hPa2.6V00:00:0001:20:2200:00:00
DM0DOS-112026-09-06 00:10:2652.98838-0.2843998°73km/h15884m4.7m/s0°C0%0hPa2.6V00:00:0001:20:1200:00:00
DM0DOS-112026-09-06 00:10:1652.98869-0.28731100°66km/h15836m5m/s0°C0%0hPa2.6V00:00:0001:20:0200:00:00


GPX KML Map

© wettersonde.net (DO2JMG) - 2026  -  -